GEFSMW_prec_meanprecacc_180.txt.gz
Total_Precipitation_Accumulation
1.87 2.09 2.39 2.85 3.61 4.34 5.01 5.11 5.27 4.74 4.07 3.49 3.05 2.92 2.68 2.39 2.33 2.19 2.02 1.86 1.68 1.59 1.73 1.54 1.49 1.40 1.47 1.50 1.59 1.72 1.74 1.50 1.66 1.99 1.63 1.12 0.84 0.77 0.69 0.63 0.64 0.65 0.71
1.97 2.34 2.86 3.22 3.22 3.74 4.43 4.48 4.12 3.82 3.33 2.92 2.73 2.56 2.46 2.17 1.99 1.85 1.82 1.64 1.49 1.45 1.43 1.44 1.31 1.28 1.37 1.36 1.42 1.55 1.54 1.38 1.59 1.91 1.99 1.55 1.20 0.92 0.64 0.59 0.59 0.66 0.79
1.85 2.28 2.68 3.08 3.03 3.39 3.50 3.10 2.88 2.87 2.79 2.59 2.48 2.37 2.32 2.14 1.84 1.56 1.50 1.45 1.27 1.22 1.16 1.15 1.18 1.25 1.15 1.22 1.31 1.46 1.61 1.48 1.38 1.62 1.90 1.70 1.38 1.12 0.83 0.73 0.82 0.93 1.03
1.31 1.57 1.89 2.31 2.50 2.56 2.49 2.41 2.34 2.31 2.47 2.48 2.26 2.06 1.74 1.59 1.49 1.35 1.34 1.36 1.23 1.16 1.06 1.04 1.16 1.22 1.18 1.29 1.11 1.19 1.43 1.56 1.36 1.36 1.42 1.43 1.53 1.53 1.19 0.87 0.81 0.93 1.01
0.94 1.08 1.20 1.41 1.69 1.92 1.96 1.91 2.14 2.21 2.21 2.19 2.13 2.10 1.83 1.61 1.50 1.57 1.72 1.60 1.35 1.13 1.01 1.02 1.10 1.17 1.17 1.22 1.21 1.28 1.24 1.28 1.24 1.24 1.26 1.35 1.48 1.43 1.38 1.17 0.96 0.93 0.82
0.73 0.88 0.95 0.99 1.12 1.26 1.36 1.47 1.70 1.90 1.96 1.91 1.91 1.93 1.87 1.76 1.51 1.43 1.46 1.37 1.25 1.11 1.01 1.03 1.15 1.14 1.10 1.10 1.13 1.17 1.14 1.19 1.22 1.21 1.22 1.32 1.31 1.27 1.40 1.31 1.10 1.03 0.85
0.53 0.63 0.70 0.78 0.86 0.88 0.95 1.11 1.30 1.46 1.59 1.65 1.67 1.72 1.86 1.75 1.50 1.29 1.29 1.23 1.09 1.00 0.99 0.99 1.17 1.26 1.22 1.16 1.18 1.20 1.22 1.28 1.29 1.22 1.22 1.27 1.25 1.28 1.41 1.41 1.19 1.11 1.02
0.45 0.44 0.48 0.53 0.66 0.67 0.73 0.84 0.93 1.04 1.17 1.39 1.57 1.53 1.60 1.46 1.32 1.39 1.29 1.13 0.94 0.95 1.13 1.21 1.23 1.25 1.29 1.28 1.42 1.34 1.32 1.39 1.39 1.29 1.45 1.44 1.29 1.42 1.54 1.64 1.67 1.49 1.39
0.43 0.38 0.37 0.41 0.44 0.46 0.49 0.58 0.74 0.94 1.02 1.12 1.33 1.42 1.35 1.30 1.35 1.43 1.36 1.22 1.11 1.01 1.14 1.24 1.34 1.33 1.31 1.36 1.52 1.51 1.53 1.59 1.52 1.50 1.65 1.62 1.53 1.53 1.52 1.70 1.89 1.95 1.80
0.44 0.49 0.36 0.36 0.38 0.35 0.40 0.53 0.67 0.89 1.08 1.09 1.07 1.11 1.28 1.31 1.40 1.40 1.23 1.17 1.13 1.10 1.12 1.11 1.19 1.22 1.22 1.33 1.56 1.58 1.63 1.77 1.75 1.72 1.76 1.75 1.69 1.75 1.70 1.74 1.93 2.08 2.09
0.39 0.43 0.32 0.27 0.32 0.35 0.42 0.53 0.65 0.91 1.08 1.00 1.01 1.10 1.24 1.29 1.31 1.43 1.38 1.26 1.18 1.15 1.11 1.07 1.10 1.10 1.08 1.17 1.34 1.48 1.65 1.79 1.84 1.80 1.81 1.81 1.89 1.92 1.80 1.84 1.89 2.01 2.15
0.40 0.43 0.39 0.40 0.41 0.46 0.51 0.62 0.69 0.83 0.94 0.97 1.03 1.10 1.18 1.22 1.18 1.22 1.27 1.31 1.21 1.13 1.14 1.16 1.14 1.04 1.03 1.13 1.29 1.44 1.63 1.79 1.89 1.94 1.98 1.83 1.87 1.97 1.93 1.91 1.91 1.96 2.17
0.55 0.51 0.52 0.57 0.51 0.53 0.65 0.73 0.80 0.83 0.93 1.09 1.08 1.03 1.07 1.01 1.01 1.05 1.10 1.18 1.22 1.24 1.23 1.22 1.18 1.16 1.23 1.36 1.44 1.50 1.64 1.80 1.88 1.93 1.92 1.90 1.97 1.90 1.94 1.98 1.95 1.92 1.91
0.53 0.46 0.48 0.51 0.54 0.59 0.65 0.72 0.81 0.86 0.94 0.96 0.96 0.96 0.95 0.94 1.00 1.05 1.07 1.10 1.13 1.21 1.24 1.22 1.29 1.34 1.39 1.44 1.46 1.46 1.51 1.61 1.68 1.68 1.62 1.58 1.64 1.70 1.79 1.78 1.77 1.80 1.83
0.50 0.40 0.36 0.47 0.58 0.65 0.65 0.71 0.79 0.87 0.99 1.00 0.93 0.88 0.90 0.93 0.96 0.97 1.00 1.03 1.09 1.12 1.29 1.34 1.44 1.52 1.50 1.40 1.43 1.44 1.37 1.52 1.48 1.39 1.37 1.39 1.47 1.48 1.53 1.47 1.52 1.64 1.71
0.50 0.48 0.45 0.53 0.59 0.60 0.60 0.58 0.61 0.72 0.86 0.91 0.95 0.98 0.96 0.90 0.95 0.99 0.99 1.03 1.12 1.24 1.35 1.40 1.52 1.55 1.42 1.47 1.50 1.49 1.46 1.50 1.47 1.42 1.37 1.27 1.26 1.23 1.25 1.29 1.35 1.46 1.57
0.44 0.51 0.53 0.56 0.57 0.56 0.53 0.52 0.52 0.62 0.82 0.93 0.94 1.03 1.12 1.03 1.10 1.14 1.14 1.16 1.23 1.34 1.40 1.52 1.56 1.56 1.61 1.54 1.42 1.44 1.38 1.43 1.47 1.51 1.51 1.27 1.11 1.17 1.17 1.29 1.27 1.24 1.28
0.41 0.47 0.47 0.48 0.51 0.51 0.52 0.50 0.52 0.60 0.80 0.96 1.00 1.16 1.31 1.22 1.25 1.27 1.29 1.36 1.43 1.47 1.58 1.63 1.56 1.57 1.61 1.52 1.29 1.21 1.12 1.20 1.31 1.40 1.45 1.44 1.34 1.31 1.33 1.39 1.37 1.28 1.25
0.44 0.43 0.47 0.48 0.50 0.54 0.54 0.57 0.69 0.80 0.92 1.04 1.15 1.32 1.48 1.55 1.53 1.50 1.59 1.65 1.68 1.73 1.81 1.88 1.85 1.76 1.72 1.53 1.20 1.08 1.01 1.13 1.18 1.21 1.23 1.24 1.16 1.15 1.09 1.14 1.21 1.23 1.22
0.46 0.50 0.57 0.57 0.54 0.60 0.63 0.68 0.83 1.02 1.14 1.17 1.19 1.29 1.47 1.57 1.61 1.62 1.78 1.94 1.98 1.98 2.01 1.92 1.80 1.71 1.69 1.60 1.29 1.12 1.09 1.22 1.26 1.33 1.32 1.30 1.24 1.18 1.04 1.03 1.10 1.09 1.11
0.49 0.52 0.56 0.63 0.66 0.72 0.80 0.91 0.99 1.09 1.12 1.12 1.15 1.23 1.46 1.74 1.78 1.84 1.92 2.03 2.10 2.15 2.17 2.07 1.97 1.85 1.79 1.75 1.41 1.24 1.20 1.30 1.36 1.30 1.31 1.28 1.25 1.05 0.93 0.92 0.97 0.98 0.99
0.53 0.53 0.54 0.60 0.68 0.78 0.93 1.01 1.04 1.07 1.13 1.14 1.20 1.32 1.57 1.67 1.77 1.93 1.98 2.13 2.25 2.26 2.23 2.23 2.09 2.03 1.94 1.69 1.40 1.20 1.20 1.31 1.42 1.42 1.39 1.35 1.20 0.96 0.84 0.74 0.72 0.75 0.75
0.58 0.62 0.60 0.64 0.70 0.81 1.00 1.14 1.13 1.14 1.14 1.13 1.17 1.27 1.41 1.51 1.65 1.73 1.71 1.80 1.93 1.95 1.99 2.02 1.98 1.99 2.08 1.95 1.53 1.24 1.17 1.25 1.37 1.50 1.58 1.38 1.19 1.04 0.90 0.84 0.75 0.68 0.65
0.70 0.69 0.66 0.68 0.72 0.78 0.96 1.11 1.12 1.13 1.13 1.08 1.05 1.14 1.32 1.40 1.47 1.59 1.60 1.70 1.77 1.83 1.91 1.93 1.89 1.89 2.04 2.04 1.74 1.43 1.24 1.17 1.16 1.21 1.24 1.16 1.10 0.99 0.88 0.80 0.71 0.63 0.66
0.60 0.60 0.61 0.65 0.68 0.74 0.91 1.05 1.08 1.10 1.14 1.10 1.06 1.13 1.24 1.34 1.42 1.53 1.62 1.65 1.68 1.66 1.69 1.73 1.71 1.71 1.83 1.82 1.59 1.39 1.25 1.15 1.14 1.16 1.21 1.20 1.19 1.08 0.99 0.91 0.86 0.85 0.86
0.57 0.60 0.63 0.64 0.62 0.67 0.77 0.87 1.04 1.20 1.26 1.18 1.10 1.09 1.10 1.18 1.26 1.34 1.35 1.28 1.26 1.25 1.23 1.27 1.21 1.19 1.36 1.36 1.13 1.00 1.03 1.04 1.01 1.04 1.12 1.19 1.22 1.18 1.11 1.06 1.00 1.00 0.97

GEFSMW_prec_meanprecacc_186.txt.gz
Total_Precipitation_Accumulation
1.88 2.10 2.39 2.86 3.63 4.37 5.04 5.14 5.32 4.79 4.12 3.54 3.08 2.97 2.78 2.49 2.43 2.32 2.13 1.98 1.78 1.69 1.80 1.63 1.57 1.47 1.53 1.54 1.64 1.76 1.78 1.53 1.70 2.02 1.66 1.16 0.87 0.80 0.73 0.66 0.67 0.68 0.73
1.97 2.34 2.87 3.23 3.25 3.76 4.46 4.51 4.16 3.89 3.41 3.00 2.79 2.62 2.54 2.25 2.09 1.96 1.93 1.75 1.61 1.57 1.55 1.55 1.40 1.37 1.44 1.42 1.49 1.61 1.58 1.41 1.62 1.95 2.03 1.58 1.22 0.94 0.66 0.63 0.62 0.69 0.82
1.86 2.29 2.70 3.10 3.07 3.43 3.53 3.15 2.94 2.96 2.87 2.68 2.55 2.43 2.38 2.19 1.91 1.70 1.67 1.58 1.41 1.36 1.31 1.27 1.28 1.34 1.22 1.27 1.37 1.52 1.65 1.51 1.42 1.67 1.96 1.73 1.40 1.13 0.85 0.75 0.85 0.97 1.06
1.32 1.59 1.93 2.35 2.54 2.62 2.54 2.47 2.41 2.38 2.55 2.55 2.31 2.10 1.78 1.64 1.55 1.45 1.47 1.50 1.34 1.27 1.21 1.17 1.26 1.29 1.24 1.35 1.17 1.25 1.49 1.61 1.42 1.41 1.46 1.47 1.56 1.56 1.21 0.89 0.82 0.95 1.04
0.97 1.12 1.24 1.45 1.73 1.97 2.02 1.98 2.20 2.28 2.27 2.24 2.18 2.14 1.87 1.67 1.58 1.66 1.82 1.72 1.46 1.23 1.10 1.11 1.20 1.26 1.25 1.29 1.27 1.34 1.30 1.36 1.32 1.31 1.31 1.39 1.52 1.47 1.41 1.18 0.97 0.95 0.85
0.75 0.92 0.98 1.03 1.16 1.31 1.41 1.51 1.74 1.94 1.98 1.93 1.93 1.96 1.92 1.82 1.59 1.51 1.57 1.51 1.37 1.20 1.07 1.09 1.22 1.23 1.20 1.21 1.22 1.23 1.19 1.24 1.27 1.27 1.30 1.39 1.38 1.31 1.43 1.32 1.12 1.05 0.88
0.55 0.66 0.72 0.81 0.91 0.93 0.99 1.14 1.33 1.48 1.61 1.66 1.69 1.75 1.90 1.80 1.55 1.37 1.37 1.32 1.17 1.06 1.03 1.02 1.22 1.32 1.29 1.25 1.28 1.28 1.28 1.33 1.34 1.29 1.31 1.36 1.33 1.35 1.49 1.47 1.23 1.15 1.08
0.46 0.45 0.50 0.55 0.69 0.74 0.79 0.89 0.97 1.06 1.20 1.42 1.60 1.57 1.65 1.51 1.38 1.47 1.36 1.20 1.00 1.00 1.17 1.25 1.29 1.30 1.33 1.33 1.49 1.40 1.38 1.45 1.46 1.37 1.56 1.54 1.40 1.56 1.69 1.77 1.78 1.58 1.47
0.44 0.40 0.39 0.43 0.46 0.51 0.57 0.65 0.82 0.98 1.05 1.15 1.37 1.46 1.40 1.37 1.42 1.52 1.44 1.29 1.17 1.06 1.19 1.30 1.39 1.36 1.34 1.40 1.57 1.56 1.58 1.65 1.60 1.59 1.75 1.73 1.63 1.64 1.63 1.82 2.02 2.08 1.91
0.47 0.51 0.38 0.37 0.40 0.39 0.47 0.58 0.73 0.93 1.11 1.12 1.11 1.15 1.34 1.39 1.47 1.47 1.31 1.24 1.19 1.15 1.17 1.16 1.24 1.24 1.24 1.36 1.59 1.62 1.69 1.83 1.81 1.78 1.82 1.81 1.76 1.81 1.77 1.83 2.04 2.21 2.20
0.44 0.47 0.35 0.30 0.34 0.38 0.45 0.56 0.68 0.94 1.13 1.05 1.07 1.16 1.30 1.35 1.36 1.47 1.44 1.32 1.24 1.21 1.16 1.12 1.14 1.13 1.10 1.20 1.37 1.51 1.70 1.83 1.88 1.85 1.87 1.86 1.94 1.97 1.86 1.91 1.96 2.10 2.26
0.46 0.48 0.43 0.45 0.47 0.50 0.54 0.64 0.71 0.85 0.97 1.02 1.10 1.16 1.25 1.27 1.22 1.26 1.34 1.38 1.28 1.20 1.20 1.23 1.19 1.08 1.07 1.17 1.31 1.48 1.66 1.82 1.92 1.99 2.03 1.87 1.93 2.03 1.99 1.97 1.97 2.04 2.27
0.58 0.55 0.57 0.62 0.57 0.56 0.67 0.75 0.82 0.85 0.95 1.13 1.13 1.09 1.12 1.06 1.05 1.10 1.16 1.24 1.28 1.28 1.28 1.30 1.27 1.25 1.31 1.42 1.48 1.54 1.67 1.82 1.91 1.98 1.95 1.93 2.03 1.96 1.98 2.02 2.00 1.99 1.99
0.56 0.50 0.52 0.54 0.56 0.60 0.66 0.75 0.83 0.87 0.96 0.98 0.99 1.00 0.99 0.99 1.05 1.10 1.12 1.14 1.15 1.23 1.27 1.27 1.35 1.41 1.48 1.51 1.52 1.51 1.55 1.65 1.74 1.74 1.65 1.60 1.66 1.73 1.82 1.81 1.81 1.86 1.92
0.53 0.43 0.38 0.48 0.60 0.66 0.67 0.72 0.80 0.89 1.02 1.03 0.98 0.97 0.99 1.00 1.01 1.01 1.03 1.05 1.11 1.14 1.31 1.35 1.46 1.54 1.52 1.43 1.48 1.48 1.42 1.58 1.55 1.43 1.39 1.40 1.49 1.50 1.55 1.49 1.54 1.68 1.76
0.53 0.50 0.48 0.55 0.60 0.61 0.61 0.59 0.62 0.74 0.91 0.97 1.02 1.03 1.04 0.97 1.00 1.02 1.01 1.04 1.13 1.25 1.36 1.40 1.52 1.56 1.43 1.49 1.53 1.53 1.50 1.54 1.51 1.44 1.39 1.28 1.27 1.25 1.29 1.34 1.39 1.51 1.61
0.47 0.53 0.56 0.59 0.59 0.59 0.55 0.54 0.54 0.66 0.92 1.01 0.98 1.07 1.15 1.07 1.13 1.17 1.16 1.18 1.25 1.35 1.41 1.52 1.56 1.57 1.62 1.56 1.45 1.47 1.41 1.46 1.51 1.53 1.54 1.29 1.13 1.19 1.18 1.31 1.29 1.26 1.31
0.44 0.52 0.53 0.53 0.56 0.56 0.56 0.53 0.54 0.62 0.83 0.99 1.03 1.21 1.35 1.25 1.27 1.29 1.31 1.38 1.44 1.48 1.58 1.63 1.57 1.58 1.62 1.54 1.31 1.24 1.15 1.23 1.34 1.43 1.48 1.47 1.37 1.33 1.35 1.40 1.38 1.29 1.26
0.53 0.52 0.55 0.57 0.62 0.67 0.65 0.62 0.72 0.83 0.95 1.07 1.18 1.37 1.52 1.58 1.56 1.52 1.61 1.66 1.69 1.74 1.81 1.88 1.85 1.76 1.73 1.54 1.22 1.11 1.05 1.17 1.22 1.24 1.26 1.25 1.17 1.17 1.10 1.15 1.22 1.24 1.23
0.58 0.62 0.69 0.69 0.69 0.76 0.77 0.79 0.88 1.06 1.19 1.21 1.24 1.33 1.50 1.60 1.64 1.65 1.80 1.95 1.99 1.99 2.02 1.93 1.80 1.71 1.69 1.61 1.29 1.13 1.10 1.23 1.27 1.34 1.33 1.31 1.25 1.20 1.06 1.04 1.11 1.10 1.12
0.55 0.58 0.62 0.68 0.72 0.78 0.85 0.96 1.03 1.13 1.15 1.16 1.19 1.26 1.49 1.76 1.80 1.86 1.94 2.05 2.12 2.17 2.18 2.08 1.98 1.85 1.80 1.75 1.42 1.25 1.20 1.30 1.36 1.31 1.31 1.29 1.26 1.06 0.94 0.92 0.97 0.99 1.00
0.59 0.60 0.59 0.65 0.73 0.84 0.99 1.06 1.08 1.10 1.15 1.16 1.21 1.34 1.59 1.69 1.79 1.94 2.00 2.14 2.26 2.27 2.24 2.23 2.10 2.03 1.94 1.69 1.41 1.22 1.21 1.32 1.42 1.43 1.39 1.35 1.21 0.98 0.85 0.75 0.72 0.76 0.76
0.64 0.72 0.71 0.71 0.77 0.88 1.08 1.21 1.18 1.17 1.16 1.14 1.19 1.29 1.43 1.53 1.66 1.74 1.73 1.82 1.94 1.97 2.00 2.03 1.98 1.99 2.08 1.95 1.53 1.24 1.17 1.26 1.37 1.51 1.58 1.39 1.20 1.05 0.91 0.85 0.76 0.69 0.66
0.76 0.75 0.74 0.76 0.79 0.84 1.03 1.16 1.16 1.16 1.16 1.11 1.08 1.17 1.34 1.41 1.49 1.61 1.63 1.72 1.80 1.85 1.92 1.94 1.89 1.90 2.04 2.04 1.74 1.43 1.25 1.17 1.16 1.21 1.24 1.16 1.10 0.99 0.88 0.80 0.71 0.63 0.66
0.66 0.65 0.66 0.71 0.73 0.79 0.97 1.11 1.13 1.14 1.17 1.13 1.08 1.15 1.25 1.35 1.43 1.55 1.64 1.66 1.69 1.68 1.70 1.74 1.71 1.71 1.83 1.82 1.60 1.39 1.25 1.15 1.14 1.16 1.21 1.20 1.19 1.08 0.99 0.91 0.86 0.85 0.86
0.61 0.64 0.68 0.68 0.65 0.71 0.82 0.93 1.10 1.25 1.28 1.20 1.12 1.10 1.11 1.19 1.27 1.35 1.36 1.29 1.27 1.26 1.24 1.28 1.21 1.20 1.36 1.37 1.14 1.00 1.03 1.04 1.02 1.04 1.12 1.19 1.23 1.18 1.11 1.06 1.00 1.00 0.98

GEFSMW_prec_meanprecacc_192.txt.gz
Total_Precipitation_Accumulation
1.88 2.10 2.40 2.89 3.66 4.40 5.08 5.18 5.36 4.84 4.18 3.60 3.16 3.06 2.88 2.58 2.50 2.39 2.23 2.07 1.86 1.74 1.87 1.71 1.68 1.58 1.63 1.64 1.73 1.85 1.88 1.63 1.78 2.10 1.73 1.21 0.92 0.84 0.78 0.71 0.72 0.71 0.77
1.97 2.34 2.88 3.26 3.27 3.79 4.49 4.54 4.21 3.95 3.48 3.06 2.85 2.68 2.61 2.32 2.16 2.03 2.01 1.84 1.69 1.65 1.63 1.65 1.50 1.47 1.54 1.54 1.58 1.71 1.68 1.50 1.69 2.04 2.12 1.65 1.28 0.99 0.70 0.67 0.67 0.73 0.87
1.86 2.29 2.70 3.12 3.08 3.44 3.55 3.17 2.97 3.01 2.92 2.72 2.59 2.48 2.43 2.24 1.97 1.78 1.76 1.66 1.47 1.43 1.38 1.37 1.39 1.46 1.31 1.36 1.48 1.62 1.75 1.61 1.51 1.76 2.09 1.84 1.49 1.20 0.90 0.80 0.88 1.01 1.11
1.33 1.61 1.95 2.36 2.55 2.63 2.55 2.49 2.44 2.43 2.59 2.58 2.34 2.15 1.85 1.71 1.64 1.53 1.57 1.59 1.41 1.33 1.27 1.25 1.36 1.40 1.33 1.44 1.26 1.33 1.57 1.72 1.54 1.52 1.57 1.57 1.66 1.66 1.29 0.94 0.86 0.98 1.09
0.99 1.14 1.25 1.46 1.74 1.99 2.04 2.00 2.23 2.32 2.32 2.29 2.23 2.21 1.94 1.74 1.65 1.74 1.93 1.82 1.55 1.29 1.15 1.18 1.29 1.36 1.35 1.39 1.38 1.43 1.38 1.44 1.43 1.44 1.44 1.50 1.65 1.58 1.50 1.26 1.03 1.00 0.90
0.75 0.93 0.98 1.04 1.17 1.32 1.42 1.52 1.76 1.97 2.03 1.98 1.98 2.01 1.97 1.87 1.65 1.60 1.64 1.57 1.43 1.26 1.13 1.14 1.30 1.32 1.31 1.31 1.33 1.33 1.28 1.33 1.38 1.40 1.44 1.53 1.50 1.43 1.56 1.44 1.23 1.14 0.95
0.55 0.66 0.73 0.81 0.91 0.94 1.01 1.15 1.35 1.51 1.64 1.70 1.73 1.79 1.95 1.85 1.62 1.43 1.43 1.38 1.23 1.12 1.08 1.08 1.30 1.39 1.36 1.35 1.38 1.36 1.36 1.43 1.46 1.44 1.48 1.49 1.44 1.46 1.60 1.60 1.37 1.28 1.17
0.47 0.45 0.50 0.56 0.70 0.76 0.82 0.93 1.00 1.10 1.23 1.45 1.65 1.61 1.70 1.55 1.42 1.52 1.42 1.27 1.08 1.07 1.25 1.34 1.35 1.35 1.38 1.38 1.57 1.47 1.45 1.52 1.54 1.45 1.66 1.64 1.49 1.67 1.81 1.91 1.93 1.73 1.59
0.45 0.40 0.39 0.43 0.46 0.52 0.59 0.68 0.85 1.01 1.07 1.18 1.41 1.49 1.44 1.40 1.46 1.56 1.49 1.36 1.25 1.13 1.25 1.37 1.45 1.40 1.39 1.46 1.65 1.63 1.65 1.71 1.67 1.66 1.84 1.81 1.71 1.72 1.72 1.93 2.17 2.24 2.04
0.47 0.51 0.38 0.37 0.40 0.40 0.48 0.59 0.74 0.95 1.14 1.15 1.14 1.17 1.36 1.42 1.51 1.52 1.36 1.31 1.25 1.21 1.23 1.20 1.27 1.29 1.29 1.40 1.67 1.69 1.73 1.87 1.85 1.83 1.88 1.88 1.82 1.87 1.83 1.90 2.13 2.30 2.32
0.44 0.47 0.35 0.30 0.35 0.38 0.45 0.58 0.70 0.96 1.15 1.07 1.09 1.18 1.34 1.41 1.41 1.51 1.47 1.37 1.29 1.26 1.20 1.15 1.17 1.17 1.14 1.23 1.41 1.56 1.74 1.87 1.92 1.89 1.91 1.91 1.99 2.03 1.91 1.96 2.01 2.17 2.35
0.46 0.49 0.43 0.45 0.47 0.50 0.55 0.66 0.74 0.88 0.99 1.03 1.12 1.18 1.28 1.32 1.27 1.30 1.37 1.41 1.32 1.25 1.25 1.27 1.23 1.12 1.10 1.20 1.35 1.52 1.71 1.87 1.97 2.04 2.08 1.92 1.97 2.08 2.02 2.01 2.02 2.10 2.33
0.58 0.55 0.58 0.62 0.57 0.57 0.68 0.77 0.83 0.86 0.96 1.13 1.14 1.11 1.16 1.11 1.11 1.15 1.20 1.28 1.31 1.33 1.35 1.37 1.32 1.29 1.35 1.47 1.54 1.59 1.71 1.86 1.95 2.02 1.99 1.96 2.06 1.99 2.02 2.06 2.05 2.03 2.03
0.56 0.50 0.53 0.54 0.57 0.61 0.67 0.76 0.83 0.88 0.97 0.99 1.00 1.01 1.02 1.04 1.11 1.16 1.17 1.19 1.19 1.27 1.32 1.33 1.40 1.45 1.52 1.57 1.57 1.55 1.58 1.67 1.77 1.76 1.67 1.61 1.68 1.76 1.86 1.84 1.85 1.90 1.96
0.53 0.43 0.39 0.49 0.61 0.67 0.68 0.73 0.81 0.89 1.02 1.03 0.99 0.99 1.01 1.03 1.05 1.07 1.07 1.09 1.15 1.18 1.35 1.39 1.49 1.57 1.55 1.46 1.50 1.51 1.44 1.62 1.59 1.46 1.42 1.43 1.51 1.52 1.58 1.51 1.57 1.71 1.79
0.53 0.50 0.48 0.56 0.61 0.62 0.62 0.60 0.63 0.75 0.92 0.98 1.03 1.05 1.05 0.99 1.03 1.04 1.02 1.06 1.16 1.27 1.40 1.44 1.55 1.59 1.45 1.50 1.54 1.55 1.53 1.58 1.54 1.47 1.41 1.31 1.30 1.27 1.30 1.35 1.41 1.53 1.65
0.47 0.54 0.57 0.61 0.60 0.59 0.55 0.55 0.55 0.67 0.94 1.02 1.00 1.08 1.16 1.08 1.14 1.17 1.16 1.19 1.26 1.36 1.43 1.55 1.59 1.59 1.64 1.57 1.46 1.49 1.44 1.49 1.53 1.56 1.56 1.31 1.15 1.21 1.20 1.33 1.31 1.27 1.31
0.45 0.53 0.54 0.54 0.56 0.56 0.56 0.54 0.55 0.63 0.85 1.01 1.05 1.22 1.36 1.27 1.28 1.29 1.32 1.38 1.45 1.49 1.59 1.64 1.57 1.58 1.63 1.56 1.32 1.25 1.17 1.26 1.38 1.47 1.52 1.50 1.40 1.36 1.37 1.42 1.39 1.29 1.27
0.54 0.53 0.56 0.58 0.63 0.68 0.66 0.63 0.72 0.84 0.97 1.08 1.19 1.38 1.53 1.59 1.57 1.53 1.62 1.67 1.70 1.75 1.82 1.89 1.86 1.77 1.74 1.55 1.23 1.12 1.09 1.23 1.30 1.34 1.34 1.32 1.22 1.21 1.13 1.16 1.22 1.24 1.23
0.59 0.63 0.70 0.70 0.70 0.77 0.77 0.79 0.89 1.07 1.20 1.23 1.26 1.34 1.51 1.61 1.65 1.65 1.81 1.95 2.00 2.00 2.03 1.94 1.81 1.72 1.70 1.61 1.30 1.13 1.11 1.25 1.32 1.40 1.38 1.35 1.28 1.22 1.08 1.05 1.12 1.11 1.13
0.55 0.58 0.62 0.69 0.73 0.79 0.86 0.97 1.05 1.16 1.19 1.19 1.22 1.29 1.51 1.77 1.81 1.87 1.94 2.05 2.13 2.18 2.19 2.09 1.98 1.86 1.81 1.76 1.43 1.25 1.21 1.30 1.36 1.31 1.32 1.29 1.26 1.07 0.95 0.95 1.00 1.01 1.01
0.61 0.61 0.60 0.66 0.73 0.85 1.00 1.09 1.11 1.15 1.21 1.22 1.26 1.37 1.60 1.70 1.80 1.95 2.00 2.15 2.27 2.28 2.25 2.24 2.11 2.04 1.95 1.70 1.42 1.23 1.22 1.32 1.43 1.43 1.39 1.36 1.22 0.98 0.85 0.76 0.73 0.76 0.77
0.66 0.72 0.71 0.72 0.77 0.89 1.09 1.22 1.22 1.22 1.21 1.18 1.21 1.31 1.45 1.54 1.67 1.75 1.74 1.83 1.96 1.98 2.01 2.04 2.00 2.01 2.11 1.97 1.54 1.24 1.18 1.26 1.37 1.51 1.59 1.39 1.20 1.06 0.92 0.85 0.76 0.69 0.66
0.77 0.77 0.76 0.78 0.81 0.86 1.04 1.17 1.17 1.18 1.18 1.14 1.10 1.19 1.35 1.43 1.50 1.62 1.64 1.73 1.80 1.86 1.93 1.95 1.92 1.93 2.08 2.08 1.76 1.44 1.25 1.17 1.16 1.21 1.24 1.16 1.10 0.99 0.88 0.80 0.71 0.63 0.66
0.68 0.68 0.69 0.74 0.75 0.80 0.98 1.13 1.15 1.16 1.20 1.16 1.11 1.17 1.28 1.37 1.45 1.56 1.65 1.67 1.70 1.68 1.71 1.75 1.72 1.72 1.84 1.84 1.60 1.39 1.26 1.16 1.14 1.16 1.22 1.20 1.19 1.09 0.99 0.92 0.86 0.85 0.86
0.63 0.66 0.70 0.70 0.66 0.72 0.84 0.95 1.12 1.26 1.31 1.23 1.15 1.13 1.14 1.21 1.28 1.36 1.37 1.30 1.27 1.26 1.24 1.28 1.21 1.20 1.36 1.37 1.14 1.01 1.04 1.04 1.02 1.04 1.12 1.19 1.23 1.18 1.11 1.06 1.00 1.00 0.98

GEFSMW_prec_meanprecacc_198.txt.gz
Total_Precipitation_Accumulation
1.88 2.10 2.41 2.89 3.67 4.41 5.09 5.20 5.42 4.90 4.25 3.67 3.24 3.14 2.95 2.64 2.55 2.45 2.27 2.12 1.91 1.78 1.92 1.77 1.78 1.67 1.71 1.71 1.80 1.94 2.00 1.74 1.87 2.23 1.86 1.30 1.00 0.94 0.83 0.75 0.76 0.77 0.83
1.97 2.34 2.88 3.26 3.27 3.79 4.51 4.57 4.25 4.00 3.53 3.12 2.92 2.76 2.68 2.38 2.21 2.08 2.06 1.86 1.72 1.68 1.67 1.72 1.60 1.56 1.64 1.63 1.67 1.83 1.79 1.60 1.80 2.19 2.29 1.80 1.41 1.09 0.76 0.72 0.73 0.80 0.94
1.86 2.30 2.71 3.13 3.09 3.45 3.55 3.19 3.01 3.06 2.97 2.78 2.66 2.54 2.50 2.31 2.05 1.86 1.84 1.70 1.49 1.47 1.43 1.43 1.47 1.55 1.40 1.49 1.60 1.75 1.87 1.73 1.65 1.90 2.27 2.05 1.68 1.35 1.01 0.87 0.95 1.08 1.21
1.33 1.61 1.95 2.36 2.55 2.63 2.56 2.51 2.47 2.48 2.64 2.64 2.40 2.21 1.92 1.79 1.72 1.60 1.64 1.65 1.44 1.35 1.30 1.28 1.41 1.47 1.41 1.58 1.36 1.46 1.71 1.87 1.69 1.68 1.73 1.73 1.86 1.86 1.47 1.08 0.97 1.10 1.23
0.99 1.14 1.26 1.46 1.74 1.99 2.04 2.01 2.26 2.36 2.36 2.33 2.28 2.25 1.99 1.80 1.72 1.82 2.01 1.90 1.61 1.33 1.17 1.22 1.35 1.43 1.43 1.50 1.48 1.56 1.50 1.58 1.58 1.61 1.60 1.69 1.86 1.78 1.70 1.46 1.21 1.16 1.05
0.75 0.93 0.99 1.04 1.17 1.32 1.43 1.53 1.78 2.00 2.06 2.02 2.02 2.05 2.04 1.97 1.76 1.70 1.74 1.65 1.51 1.33 1.17 1.20 1.38 1.41 1.42 1.44 1.46 1.46 1.41 1.48 1.55 1.58 1.60 1.72 1.69 1.62 1.75 1.62 1.41 1.33 1.10
0.55 0.66 0.73 0.81 0.92 0.95 1.02 1.18 1.37 1.54 1.67 1.75 1.79 1.85 2.03 1.93 1.70 1.50 1.51 1.47 1.31 1.18 1.15 1.17 1.41 1.50 1.48 1.46 1.51 1.49 1.48 1.57 1.62 1.61 1.65 1.69 1.62 1.61 1.76 1.75 1.50 1.41 1.27
0.47 0.45 0.50 0.56 0.71 0.77 0.84 0.97 1.05 1.13 1.27 1.52 1.74 1.70 1.78 1.62 1.48 1.59 1.50 1.35 1.15 1.14 1.32 1.42 1.43 1.42 1.46 1.47 1.69 1.58 1.59 1.66 1.68 1.58 1.83 1.80 1.63 1.79 1.94 2.04 2.06 1.84 1.70
0.45 0.40 0.39 0.43 0.47 0.53 0.61 0.72 0.93 1.07 1.12 1.23 1.46 1.55 1.51 1.48 1.54 1.65 1.57 1.44 1.35 1.22 1.35 1.44 1.52 1.47 1.47 1.55 1.77 1.75 1.78 1.85 1.79 1.78 1.97 1.92 1.81 1.80 1.79 2.00 2.25 2.33 2.14
0.47 0.52 0.39 0.38 0.41 0.41 0.50 0.61 0.78 0.99 1.18 1.18 1.17 1.21 1.43 1.49 1.57 1.58 1.44 1.40 1.33 1.29 1.33 1.28 1.33 1.34 1.36 1.49 1.77 1.80 1.84 1.97 1.94 1.92 1.98 1.98 1.89 1.94 1.88 1.95 2.20 2.39 2.42
0.45 0.48 0.36 0.31 0.35 0.39 0.46 0.59 0.73 0.99 1.18 1.09 1.10 1.21 1.38 1.46 1.48 1.59 1.55 1.44 1.35 1.32 1.27 1.22 1.24 1.24 1.21 1.31 1.50 1.65 1.83 1.94 1.99 1.97 2.01 2.01 2.09 2.11 1.98 2.03 2.09 2.26 2.44
0.46 0.49 0.43 0.45 0.47 0.51 0.56 0.66 0.75 0.88 1.00 1.05 1.13 1.19 1.30 1.37 1.37 1.40 1.45 1.49 1.40 1.33 1.33 1.35 1.32 1.20 1.17 1.27 1.41 1.57 1.75 1.92 2.02 2.11 2.18 2.01 2.06 2.17 2.09 2.07 2.09 2.18 2.42
0.58 0.56 0.59 0.65 0.60 0.58 0.69 0.77 0.84 0.86 0.97 1.14 1.15 1.11 1.18 1.16 1.18 1.23 1.27 1.35 1.40 1.42 1.44 1.45 1.40 1.36 1.42 1.52 1.59 1.64 1.77 1.91 2.00 2.08 2.06 2.01 2.12 2.04 2.08 2.13 2.11 2.10 2.12
0.56 0.50 0.53 0.56 0.59 0.62 0.68 0.77 0.84 0.88 0.97 0.99 1.01 1.03 1.03 1.06 1.15 1.22 1.24 1.27 1.27 1.36 1.39 1.39 1.46 1.51 1.57 1.62 1.62 1.61 1.64 1.72 1.80 1.79 1.70 1.65 1.71 1.78 1.91 1.91 1.91 1.98 2.04
0.53 0.43 0.39 0.49 0.61 0.68 0.69 0.74 0.82 0.90 1.03 1.04 1.01 1.01 1.03 1.05 1.08 1.12 1.12 1.14 1.20 1.23 1.39 1.43 1.52 1.60 1.59 1.50 1.54 1.56 1.48 1.65 1.62 1.49 1.45 1.46 1.55 1.56 1.62 1.55 1.61 1.75 1.84
0.53 0.51 0.48 0.56 0.61 0.62 0.62 0.61 0.64 0.76 0.94 1.00 1.06 1.09 1.09 1.03 1.06 1.08 1.06 1.08 1.17 1.29 1.42 1.46 1.57 1.62 1.48 1.52 1.56 1.58 1.57 1.62 1.57 1.51 1.46 1.35 1.34 1.31 1.34 1.38 1.43 1.55 1.68
0.48 0.54 0.57 0.61 0.60 0.59 0.56 0.55 0.56 0.68 0.96 1.05 1.03 1.12 1.20 1.12 1.18 1.21 1.19 1.21 1.27 1.37 1.44 1.56 1.60 1.60 1.65 1.57 1.47 1.50 1.47 1.53 1.58 1.60 1.60 1.35 1.18 1.25 1.23 1.36 1.33 1.29 1.33
0.45 0.53 0.54 0.55 0.57 0.57 0.56 0.54 0.56 0.64 0.87 1.04 1.08 1.26 1.40 1.31 1.31 1.33 1.34 1.40 1.46 1.50 1.60 1.65 1.58 1.59 1.64 1.56 1.32 1.26 1.19 1.29 1.41 1.50 1.55 1.54 1.44 1.40 1.40 1.45 1.41 1.31 1.27
0.54 0.54 0.57 0.58 0.64 0.68 0.66 0.64 0.74 0.86 0.98 1.11 1.22 1.42 1.57 1.62 1.59 1.55 1.64 1.68 1.71 1.75 1.83 1.89 1.87 1.78 1.75 1.55 1.24 1.13 1.10 1.24 1.32 1.37 1.38 1.36 1.28 1.26 1.18 1.20 1.25 1.25 1.24
0.60 0.64 0.71 0.71 0.71 0.78 0.78 0.80 0.90 1.08 1.21 1.25 1.28 1.40 1.56 1.64 1.66 1.67 1.82 1.97 2.00 2.00 2.04 1.94 1.82 1.73 1.71 1.62 1.30 1.14 1.11 1.26 1.34 1.43 1.42 1.38 1.30 1.24 1.09 1.07 1.13 1.13 1.14
0.56 0.59 0.63 0.70 0.74 0.80 0.87 0.98 1.06 1.17 1.20 1.21 1.23 1.32 1.53 1.78 1.81 1.87 1.95 2.06 2.13 2.18 2.20 2.10 1.99 1.87 1.81 1.77 1.43 1.27 1.22 1.31 1.37 1.32 1.34 1.32 1.28 1.07 0.96 0.96 1.01 1.02 1.02
0.61 0.62 0.61 0.68 0.75 0.87 1.02 1.10 1.13 1.16 1.22 1.24 1.27 1.37 1.61 1.71 1.80 1.96 2.01 2.16 2.28 2.29 2.26 2.25 2.12 2.04 1.95 1.71 1.42 1.23 1.22 1.32 1.43 1.43 1.40 1.36 1.22 0.98 0.85 0.76 0.73 0.77 0.77
0.68 0.73 0.72 0.74 0.80 0.92 1.12 1.24 1.24 1.24 1.23 1.21 1.24 1.33 1.46 1.55 1.68 1.76 1.74 1.83 1.97 1.99 2.02 2.05 2.01 2.02 2.11 1.97 1.55 1.25 1.18 1.26 1.37 1.52 1.59 1.39 1.21 1.06 0.92 0.85 0.77 0.69 0.66
0.78 0.79 0.79 0.81 0.84 0.90 1.07 1.20 1.19 1.20 1.21 1.16 1.13 1.22 1.38 1.45 1.53 1.64 1.65 1.74 1.81 1.87 1.94 1.96 1.92 1.94 2.08 2.09 1.77 1.44 1.25 1.17 1.16 1.21 1.24 1.17 1.10 1.00 0.88 0.80 0.71 0.63 0.66
0.70 0.70 0.71 0.76 0.78 0.83 1.00 1.15 1.16 1.18 1.22 1.18 1.13 1.21 1.32 1.41 1.47 1.58 1.66 1.68 1.71 1.69 1.72 1.75 1.72 1.73 1.85 1.84 1.61 1.40 1.26 1.16 1.15 1.17 1.22 1.21 1.19 1.09 0.99 0.92 0.86 0.85 0.86
0.66 0.69 0.72 0.71 0.68 0.73 0.87 0.97 1.14 1.28 1.34 1.25 1.16 1.14 1.15 1.24 1.31 1.39 1.38 1.31 1.28 1.26 1.24 1.28 1.21 1.20 1.36 1.37 1.14 1.01 1.04 1.05 1.02 1.05 1.13 1.20 1.24 1.19 1.12 1.06 1.01 1.01 0.98

GEFSMW_prec_meanprecacc_204.txt.gz
Total_Precipitation_Accumulation
1.88 2.11 2.41 2.90 3.68 4.41 5.09 5.21 5.43 4.91 4.26 3.69 3.27 3.17 2.98 2.67 2.58 2.47 2.29 2.14 1.92 1.79 1.93 1.79 1.81 1.69 1.73 1.74 1.84 1.99 2.06 1.78 1.93 2.32 1.94 1.38 1.08 1.04 0.91 0.85 0.89 0.91 0.96
1.98 2.35 2.89 3.27 3.28 3.80 4.51 4.57 4.26 4.01 3.54 3.13 2.94 2.77 2.70 2.40 2.23 2.11 2.09 1.90 1.75 1.71 1.69 1.75 1.64 1.59 1.66 1.67 1.71 1.87 1.85 1.64 1.84 2.25 2.37 1.86 1.49 1.20 0.86 0.83 0.84 0.96 1.14
1.86 2.30 2.71 3.14 3.10 3.46 3.56 3.19 3.03 3.08 2.98 2.80 2.68 2.57 2.53 2.33 2.08 1.89 1.87 1.73 1.53 1.50 1.46 1.46 1.51 1.58 1.43 1.53 1.64 1.81 1.93 1.79 1.70 1.96 2.35 2.13 1.77 1.45 1.13 1.01 1.09 1.20 1.33
1.33 1.61 1.95 2.37 2.56 2.64 2.57 2.52 2.48 2.50 2.67 2.67 2.43 2.24 1.94 1.81 1.74 1.62 1.67 1.68 1.47 1.38 1.33 1.32 1.45 1.50 1.45 1.61 1.40 1.53 1.79 1.93 1.75 1.75 1.80 1.82 1.97 1.95 1.59 1.20 1.10 1.22 1.35
0.99 1.14 1.26 1.46 1.74 2.00 2.06 2.04 2.28 2.37 2.39 2.36 2.30 2.28 2.02 1.82 1.75 1.86 2.05 1.95 1.64 1.37 1.21 1.27 1.39 1.45 1.47 1.55 1.53 1.61 1.58 1.64 1.65 1.68 1.67 1.76 1.96 1.86 1.80 1.56 1.32 1.26 1.16
0.76 0.94 0.99 1.04 1.17 1.34 1.46 1.57 1.82 2.02 2.08 2.04 2.04 2.08 2.07 2.00 1.80 1.75 1.79 1.70 1.54 1.37 1.22 1.24 1.41 1.44 1.46 1.48 1.51 1.50 1.47 1.53 1.60 1.64 1.67 1.78 1.76 1.70 1.84 1.72 1.49 1.39 1.18
0.56 0.67 0.73 0.82 0.93 0.97 1.07 1.25 1.45 1.59 1.70 1.78 1.83 1.89 2.06 1.97 1.73 1.53 1.55 1.50 1.34 1.24 1.22 1.22 1.45 1.54 1.52 1.51 1.57 1.55 1.53 1.62 1.68 1.68 1.72 1.75 1.69 1.67 1.83 1.82 1.56 1.46 1.32
0.48 0.46 0.50 0.57 0.72 0.78 0.86 1.02 1.14 1.20 1.31 1.54 1.76 1.73 1.83 1.68 1.54 1.63 1.54 1.40 1.20 1.21 1.41 1.51 1.52 1.50 1.54 1.55 1.77 1.64 1.63 1.71 1.74 1.64 1.89 1.86 1.69 1.83 1.98 2.09 2.12 1.89 1.74
0.46 0.41 0.40 0.44 0.47 0.53 0.61 0.78 1.05 1.12 1.14 1.24 1.47 1.56 1.54 1.54 1.60 1.72 1.65 1.52 1.42 1.30 1.46 1.59 1.65 1.58 1.55 1.63 1.83 1.80 1.83 1.90 1.84 1.84 2.01 1.96 1.85 1.84 1.83 2.04 2.30 2.37 2.17
0.50 0.55 0.42 0.39 0.41 0.41 0.50 0.62 0.79 1.00 1.18 1.18 1.18 1.22 1.45 1.51 1.62 1.65 1.53 1.50 1.46 1.43 1.47 1.45 1.48 1.45 1.44 1.56 1.83 1.85 1.90 2.04 2.01 1.98 2.01 2.02 1.92 1.97 1.91 1.98 2.24 2.44 2.45
0.49 0.53 0.38 0.32 0.36 0.39 0.47 0.60 0.74 1.00 1.18 1.10 1.11 1.22 1.39 1.48 1.53 1.66 1.63 1.53 1.49 1.49 1.41 1.35 1.35 1.33 1.28 1.37 1.57 1.70 1.88 2.01 2.06 2.03 2.06 2.06 2.12 2.14 2.01 2.07 2.16 2.32 2.49
0.51 0.53 0.45 0.47 0.49 0.54 0.57 0.68 0.76 0.90 1.01 1.06 1.14 1.20 1.31 1.38 1.41 1.45 1.52 1.57 1.53 1.56 1.52 1.46 1.40 1.27 1.24 1.36 1.50 1.66 1.82 1.96 2.07 2.16 2.22 2.04 2.09 2.20 2.13 2.12 2.15 2.23 2.47
0.60 0.57 0.60 0.67 0.64 0.65 0.74 0.80 0.86 0.88 0.98 1.15 1.16 1.12 1.18 1.17 1.21 1.28 1.34 1.44 1.50 1.55 1.60 1.60 1.51 1.46 1.49 1.59 1.64 1.69 1.83 1.96 2.04 2.13 2.11 2.05 2.16 2.07 2.10 2.16 2.14 2.13 2.17
0.58 0.52 0.57 0.61 0.65 0.67 0.71 0.79 0.85 0.91 0.99 1.00 1.02 1.04 1.05 1.09 1.18 1.27 1.31 1.33 1.32 1.40 1.44 1.43 1.50 1.54 1.60 1.64 1.65 1.64 1.68 1.76 1.84 1.83 1.74 1.67 1.73 1.80 1.94 1.94 1.94 2.01 2.08
0.54 0.45 0.45 0.53 0.63 0.69 0.70 0.75 0.82 0.91 1.04 1.06 1.03 1.04 1.08 1.09 1.13 1.16 1.17 1.19 1.26 1.27 1.42 1.45 1.54 1.61 1.60 1.52 1.56 1.58 1.51 1.68 1.66 1.53 1.48 1.48 1.57 1.60 1.67 1.60 1.67 1.80 1.88
0.54 0.52 0.52 0.59 0.63 0.64 0.64 0.62 0.65 0.77 0.95 1.03 1.12 1.16 1.15 1.08 1.12 1.13 1.10 1.13 1.25 1.34 1.43 1.47 1.58 1.62 1.49 1.53 1.58 1.60 1.60 1.65 1.61 1.54 1.48 1.38 1.38 1.36 1.39 1.44 1.48 1.60 1.72
0.50 0.57 0.62 0.64 0.63 0.62 0.58 0.57 0.57 0.70 0.99 1.09 1.08 1.20 1.28 1.19 1.25 1.28 1.24 1.24 1.29 1.39 1.46 1.57 1.61 1.60 1.66 1.59 1.48 1.51 1.49 1.56 1.60 1.62 1.61 1.37 1.20 1.28 1.27 1.40 1.37 1.33 1.38
0.49 0.57 0.58 0.59 0.60 0.59 0.59 0.58 0.58 0.66 0.91 1.08 1.13 1.33 1.48 1.39 1.39 1.40 1.40 1.44 1.48 1.51 1.62 1.66 1.58 1.59 1.64 1.57 1.34 1.28 1.20 1.31 1.43 1.52 1.56 1.55 1.46 1.43 1.43 1.49 1.47 1.38 1.34
0.58 0.58 0.62 0.64 0.69 0.74 0.75 0.74 0.79 0.89 1.02 1.15 1.27 1.50 1.70 1.73 1.68 1.62 1.68 1.71 1.73 1.76 1.83 1.90 1.87 1.78 1.75 1.57 1.26 1.14 1.11 1.26 1.33 1.39 1.39 1.37 1.29 1.30 1.22 1.25 1.30 1.31 1.27
0.64 0.74 0.82 0.82 0.82 0.88 0.86 0.88 0.97 1.13 1.25 1.28 1.31 1.44 1.66 1.73 1.71 1.70 1.84 1.98 2.02 2.01 2.04 1.95 1.82 1.73 1.72 1.63 1.32 1.15 1.12 1.27 1.35 1.44 1.43 1.39 1.31 1.26 1.12 1.09 1.15 1.14 1.14
0.64 0.70 0.71 0.80 0.89 0.96 0.98 1.08 1.12 1.20 1.23 1.24 1.26 1.35 1.57 1.88 1.86 1.90 1.97 2.08 2.15 2.19 2.20 2.10 1.99 1.87 1.82 1.78 1.45 1.28 1.23 1.32 1.38 1.33 1.34 1.32 1.28 1.08 0.97 0.96 1.01 1.02 1.02
0.69 0.69 0.66 0.74 0.85 0.98 1.12 1.18 1.20 1.22 1.28 1.29 1.32 1.40 1.65 1.75 1.83 1.98 2.04 2.18 2.29 2.29 2.26 2.26 2.12 2.05 1.96 1.71 1.43 1.24 1.23 1.33 1.44 1.44 1.40 1.36 1.22 0.98 0.86 0.76 0.74 0.77 0.78
0.72 0.78 0.77 0.80 0.87 0.99 1.18 1.31 1.30 1.30 1.29 1.26 1.28 1.37 1.51 1.59 1.74 1.82 1.80 1.86 1.97 1.99 2.02 2.06 2.03 2.03 2.11 1.98 1.55 1.25 1.18 1.26 1.37 1.52 1.59 1.39 1.21 1.06 0.92 0.86 0.77 0.69 0.66
0.84 0.85 0.84 0.87 0.91 0.95 1.13 1.27 1.25 1.26 1.27 1.22 1.18 1.26 1.43 1.52 1.62 1.73 1.70 1.77 1.83 1.88 1.96 1.98 1.94 1.95 2.09 2.09 1.77 1.44 1.25 1.17 1.16 1.22 1.25 1.17 1.11 1.00 0.89 0.80 0.72 0.63 0.67
0.84 0.79 0.78 0.82 0.83 0.87 1.06 1.21 1.22 1.24 1.29 1.24 1.18 1.25 1.36 1.47 1.54 1.63 1.70 1.72 1.74 1.72 1.75 1.77 1.73 1.74 1.85 1.84 1.61 1.40 1.26 1.16 1.15 1.17 1.23 1.21 1.20 1.09 1.00 0.92 0.87 0.86 0.87
0.77 0.77 0.80 0.78 0.74 0.81 0.96 1.07 1.22 1.36 1.40 1.30 1.21 1.18 1.18 1.28 1.35 1.42 1.42 1.35 1.32 1.30 1.28 1.30 1.23 1.21 1.37 1.37 1.14 1.01 1.04 1.05 1.02 1.05 1.13 1.21 1.25 1.20 1.12 1.07 1.02 1.02 1.00

GEFSMW_prec_meanprecacc_210.txt.gz
Total_Precipitation_Accumulation
1.90 2.12 2.42 2.92 3.70 4.43 5.11 5.22 5.44 4.93 4.27 3.71 3.30 3.20 3.00 2.70 2.60 2.49 2.32 2.16 1.94 1.81 1.95 1.82 1.83 1.71 1.76 1.77 1.88 2.05 2.13 1.83 1.98 2.39 2.01 1.43 1.14 1.10 0.95 0.89 0.95 0.97 1.02
1.99 2.36 2.90 3.29 3.30 3.82 4.53 4.59 4.28 4.02 3.56 3.16 2.96 2.79 2.73 2.42 2.24 2.13 2.11 1.92 1.77 1.73 1.72 1.80 1.68 1.62 1.68 1.68 1.75 1.93 1.92 1.70 1.91 2.32 2.42 1.89 1.52 1.24 0.90 0.89 0.90 1.03 1.21
1.87 2.30 2.72 3.15 3.12 3.49 3.58 3.21 3.04 3.09 3.01 2.84 2.70 2.58 2.55 2.36 2.11 1.92 1.89 1.75 1.55 1.52 1.49 1.49 1.53 1.61 1.45 1.55 1.69 1.86 1.98 1.85 1.76 2.01 2.39 2.16 1.80 1.50 1.19 1.09 1.17 1.28 1.39
1.33 1.62 1.96 2.38 2.57 2.66 2.58 2.53 2.50 2.52 2.69 2.70 2.45 2.26 1.96 1.84 1.76 1.65 1.70 1.71 1.49 1.41 1.38 1.35 1.48 1.54 1.49 1.65 1.45 1.57 1.84 1.99 1.80 1.79 1.84 1.86 2.00 1.99 1.64 1.28 1.18 1.30 1.43
0.99 1.15 1.26 1.48 1.76 2.01 2.08 2.06 2.31 2.39 2.42 2.39 2.32 2.30 2.03 1.84 1.78 1.89 2.07 1.97 1.67 1.40 1.25 1.30 1.43 1.50 1.52 1.58 1.56 1.64 1.62 1.68 1.70 1.73 1.72 1.80 2.00 1.90 1.84 1.63 1.41 1.36 1.25
0.77 0.95 1.00 1.06 1.19 1.35 1.48 1.59 1.84 2.05 2.11 2.07 2.07 2.10 2.10 2.03 1.84 1.78 1.81 1.71 1.56 1.40 1.25 1.26 1.44 1.48 1.51 1.53 1.56 1.55 1.50 1.56 1.64 1.68 1.72 1.82 1.81 1.76 1.89 1.76 1.56 1.48 1.25
0.60 0.73 0.76 0.84 0.95 0.98 1.08 1.27 1.47 1.62 1.74 1.80 1.85 1.91 2.07 1.99 1.76 1.56 1.58 1.53 1.37 1.27 1.25 1.25 1.49 1.59 1.58 1.58 1.64 1.60 1.56 1.65 1.72 1.72 1.76 1.78 1.74 1.73 1.88 1.88 1.61 1.50 1.36
0.55 0.59 0.55 0.58 0.73 0.79 0.87 1.03 1.16 1.24 1.35 1.56 1.77 1.74 1.84 1.69 1.56 1.66 1.57 1.44 1.24 1.26 1.47 1.59 1.60 1.57 1.62 1.64 1.84 1.70 1.68 1.75 1.79 1.70 1.95 1.91 1.75 1.90 2.05 2.15 2.17 1.93 1.78
0.52 0.50 0.44 0.45 0.48 0.54 0.62 0.79 1.06 1.14 1.17 1.25 1.47 1.56 1.55 1.56 1.61 1.74 1.68 1.56 1.47 1.35 1.51 1.66 1.74 1.66 1.63 1.72 1.91 1.86 1.89 1.97 1.90 1.90 2.09 2.02 1.89 1.89 1.90 2.09 2.35 2.42 2.21
0.58 0.61 0.45 0.40 0.42 0.42 0.51 0.62 0.80 1.01 1.19 1.18 1.18 1.22 1.45 1.52 1.63 1.67 1.56 1.54 1.50 1.49 1.53 1.50 1.53 1.51 1.51 1.63 1.90 1.92 1.97 2.11 2.07 2.04 2.07 2.06 1.95 2.00 1.95 2.04 2.32 2.52 2.52
0.50 0.55 0.39 0.32 0.36 0.39 0.47 0.60 0.74 1.00 1.19 1.10 1.12 1.23 1.39 1.49 1.54 1.67 1.65 1.56 1.52 1.54 1.49 1.45 1.46 1.43 1.36 1.44 1.63 1.76 1.95 2.07 2.12 2.10 2.13 2.11 2.18 2.19 2.06 2.12 2.21 2.38 2.55
0.52 0.54 0.45 0.47 0.50 0.54 0.58 0.68 0.77 0.90 1.01 1.06 1.15 1.21 1.31 1.39 1.42 1.46 1.53 1.60 1.56 1.61 1.58 1.53 1.51 1.39 1.35 1.44 1.56 1.71 1.87 2.01 2.13 2.22 2.29 2.09 2.15 2.26 2.18 2.17 2.19 2.28 2.53
0.61 0.58 0.60 0.67 0.64 0.65 0.74 0.80 0.86 0.88 0.99 1.16 1.16 1.13 1.19 1.19 1.22 1.29 1.36 1.48 1.53 1.58 1.63 1.64 1.57 1.51 1.55 1.64 1.70 1.74 1.88 2.01 2.09 2.18 2.16 2.10 2.21 2.12 2.15 2.21 2.19 2.17 2.22
0.59 0.53 0.57 0.61 0.66 0.68 0.72 0.80 0.86 0.91 0.99 1.01 1.02 1.05 1.08 1.12 1.21 1.29 1.32 1.37 1.36 1.43 1.47 1.47 1.54 1.58 1.63 1.67 1.68 1.67 1.71 1.80 1.88 1.87 1.77 1.71 1.76 1.83 1.97 1.97 1.97 2.03 2.11
0.54 0.45 0.45 0.54 0.63 0.70 0.71 0.77 0.84 0.91 1.04 1.06 1.04 1.08 1.14 1.13 1.16 1.19 1.20 1.22 1.30 1.31 1.46 1.48 1.57 1.63 1.61 1.53 1.58 1.59 1.52 1.69 1.67 1.54 1.49 1.49 1.59 1.61 1.68 1.61 1.68 1.83 1.92
0.54 0.52 0.52 0.59 0.63 0.64 0.66 0.68 0.68 0.78 0.96 1.04 1.15 1.23 1.22 1.12 1.15 1.16 1.14 1.18 1.30 1.38 1.46 1.49 1.60 1.64 1.50 1.55 1.59 1.61 1.60 1.66 1.62 1.55 1.49 1.38 1.39 1.38 1.41 1.45 1.50 1.62 1.75
0.50 0.57 0.63 0.65 0.64 0.63 0.60 0.59 0.59 0.72 1.01 1.11 1.13 1.25 1.32 1.23 1.28 1.31 1.29 1.29 1.34 1.43 1.48 1.58 1.62 1.62 1.66 1.60 1.49 1.52 1.50 1.57 1.61 1.63 1.63 1.38 1.21 1.31 1.29 1.42 1.39 1.36 1.41
0.49 0.58 0.59 0.60 0.61 0.61 0.62 0.62 0.64 0.70 0.94 1.12 1.17 1.38 1.53 1.43 1.44 1.45 1.45 1.48 1.52 1.54 1.63 1.67 1.59 1.60 1.65 1.58 1.34 1.28 1.20 1.31 1.44 1.53 1.58 1.56 1.47 1.44 1.45 1.51 1.50 1.42 1.40
0.58 0.59 0.63 0.65 0.70 0.76 0.78 0.78 0.86 0.95 1.09 1.21 1.32 1.54 1.74 1.78 1.73 1.68 1.74 1.77 1.77 1.79 1.85 1.90 1.87 1.78 1.75 1.57 1.26 1.15 1.12 1.26 1.34 1.39 1.39 1.38 1.29 1.31 1.24 1.26 1.32 1.34 1.31
0.65 0.75 0.84 0.83 0.84 0.92 0.91 0.94 1.03 1.21 1.34 1.38 1.39 1.50 1.70 1.78 1.75 1.74 1.87 2.01 2.03 2.02 2.05 1.95 1.82 1.73 1.72 1.63 1.32 1.16 1.13 1.27 1.36 1.45 1.43 1.39 1.32 1.27 1.14 1.10 1.17 1.16 1.17
0.66 0.72 0.73 0.83 0.93 1.03 1.09 1.18 1.22 1.29 1.34 1.35 1.38 1.47 1.69 1.97 1.91 1.93 1.99 2.09 2.15 2.19 2.20 2.10 2.00 1.87 1.82 1.78 1.46 1.29 1.23 1.32 1.38 1.34 1.34 1.32 1.29 1.09 0.99 0.97 1.02 1.05 1.05
0.70 0.70 0.69 0.79 0.94 1.12 1.29 1.33 1.29 1.32 1.41 1.42 1.44 1.54 1.76 1.86 1.91 2.02 2.07 2.19 2.30 2.30 2.26 2.26 2.13 2.05 1.96 1.72 1.44 1.26 1.24 1.33 1.44 1.44 1.40 1.36 1.22 0.98 0.86 0.77 0.74 0.78 0.78
0.73 0.80 0.80 0.84 0.94 1.08 1.29 1.41 1.40 1.40 1.40 1.37 1.37 1.45 1.59 1.66 1.79 1.87 1.83 1.88 1.99 2.00 2.04 2.08 2.04 2.05 2.14 2.00 1.57 1.26 1.19 1.26 1.37 1.52 1.59 1.39 1.21 1.06 0.93 0.86 0.77 0.70 0.67
0.86 0.88 0.88 0.91 0.96 1.03 1.21 1.34 1.32 1.34 1.38 1.31 1.26 1.35 1.52 1.63 1.73 1.80 1.77 1.83 1.88 1.92 1.99 2.01 1.97 1.99 2.13 2.13 1.80 1.47 1.28 1.19 1.17 1.22 1.25 1.17 1.11 1.00 0.89 0.81 0.72 0.63 0.67
0.90 0.86 0.85 0.89 0.90 0.94 1.13 1.28 1.30 1.33 1.41 1.37 1.30 1.36 1.46 1.56 1.67 1.73 1.78 1.79 1.80 1.77 1.78 1.81 1.77 1.78 1.90 1.90 1.67 1.47 1.32 1.21 1.17 1.18 1.23 1.21 1.20 1.10 1.00 0.93 0.87 0.86 0.88
0.88 0.90 0.92 0.91 0.88 0.93 1.06 1.18 1.35 1.50 1.54 1.45 1.38 1.32 1.27 1.35 1.42 1.48 1.47 1.40 1.36 1.34 1.31 1.34 1.27 1.27 1.43 1.42 1.18 1.04 1.07 1.06 1.03 1.05 1.13 1.21 1.25 1.20 1.12 1.08 1.02 1.02 1.00

GEFSMW_prec_meanprecacc_216.txt.gz
Total_Precipitation_Accumulation
1.90 2.12 2.43 2.92 3.71 4.44 5.12 5.23 5.46 4.97 4.32 3.76 3.36 3.26 3.07 2.77 2.67 2.53 2.35 2.20 1.99 1.86 2.01 1.86 1.89 1.76 1.81 1.83 1.94 2.13 2.22 1.92 2.07 2.48 2.07 1.47 1.17 1.14 0.99 0.94 0.99 1.01 1.06
1.99 2.36 2.90 3.29 3.31 3.84 4.55 4.60 4.30 4.05 3.59 3.20 3.02 2.85 2.79 2.48 2.30 2.17 2.15 1.95 1.79 1.77 1.76 1.85 1.73 1.68 1.76 1.76 1.83 2.02 2.01 1.77 1.98 2.41 2.50 1.97 1.58 1.29 0.94 0.93 0.96 1.08 1.26
1.88 2.31 2.72 3.16 3.13 3.50 3.59 3.22 3.06 3.12 3.04 2.87 2.75 2.63 2.60 2.41 2.15 1.96 1.94 1.79 1.59 1.58 1.56 1.53 1.59 1.68 1.51 1.63 1.80 1.95 2.07 1.93 1.84 2.10 2.50 2.28 1.91 1.59 1.26 1.15 1.23 1.35 1.48
1.34 1.63 1.96 2.38 2.58 2.67 2.59 2.55 2.52 2.55 2.73 2.73 2.49 2.31 2.01 1.89 1.82 1.71 1.75 1.75 1.53 1.45 1.43 1.40 1.54 1.61 1.55 1.72 1.52 1.63 1.91 2.08 1.89 1.87 1.93 1.95 2.13 2.12 1.75 1.38 1.28 1.40 1.53
1.03 1.17 1.27 1.48 1.76 2.02 2.08 2.07 2.33 2.42 2.44 2.42 2.36 2.34 2.07 1.87 1.82 1.94 2.12 2.02 1.72 1.44 1.28 1.34 1.48 1.55 1.57 1.64 1.61 1.71 1.70 1.76 1.79 1.81 1.80 1.89 2.09 2.00 1.94 1.74 1.54 1.49 1.37
0.78 0.98 1.03 1.06 1.20 1.35 1.48 1.59 1.85 2.06 2.13 2.10 2.10 2.14 2.12 2.07 1.88 1.83 1.87 1.77 1.62 1.45 1.28 1.30 1.50 1.55 1.57 1.58 1.62 1.62 1.57 1.63 1.71 1.76 1.78 1.91 1.91 1.87 1.98 1.85 1.65 1.60 1.36
0.61 0.81 0.80 0.84 0.95 0.98 1.09 1.27 1.47 1.63 1.75 1.83 1.88 1.93 2.10 2.02 1.80 1.61 1.63 1.58 1.42 1.32 1.30 1.29 1.55 1.64 1.63 1.62 1.68 1.66 1.63 1.72 1.78 1.79 1.83 1.86 1.81 1.82 1.97 1.96 1.72 1.64 1.48
0.55 0.62 0.57 0.58 0.73 0.80 0.88 1.04 1.17 1.25 1.36 1.58 1.79 1.76 1.86 1.72 1.58 1.70 1.61 1.48 1.28 1.30 1.51 1.63 1.64 1.61 1.65 1.68 1.88 1.74 1.74 1.81 1.84 1.76 2.03 1.98 1.82 1.98 2.15 2.26 2.31 2.07 1.89
0.52 0.50 0.44 0.45 0.49 0.54 0.62 0.79 1.06 1.15 1.19 1.27 1.49 1.58 1.57 1.57 1.63 1.76 1.71 1.58 1.49 1.37 1.54 1.69 1.76 1.68 1.66 1.76 1.96 1.90 1.94 2.04 1.97 1.97 2.18 2.11 1.99 2.00 2.02 2.20 2.45 2.53 2.32
0.58 0.61 0.45 0.40 0.42 0.42 0.51 0.62 0.80 1.01 1.20 1.19 1.19 1.23 1.46 1.53 1.64 1.68 1.58 1.56 1.52 1.50 1.55 1.53 1.56 1.54 1.54 1.66 1.95 1.96 2.02 2.17 2.13 2.10 2.12 2.12 2.01 2.06 2.02 2.10 2.40 2.64 2.66
0.50 0.55 0.39 0.32 0.36 0.39 0.47 0.60 0.74 1.01 1.19 1.10 1.12 1.24 1.40 1.50 1.55 1.68 1.66 1.58 1.54 1.57 1.51 1.47 1.48 1.46 1.39 1.48 1.67 1.80 1.99 2.11 2.17 2.14 2.17 2.16 2.24 2.27 2.13 2.20 2.32 2.49 2.65
0.52 0.54 0.45 0.47 0.50 0.54 0.58 0.68 0.77 0.90 1.02 1.06 1.16 1.22 1.32 1.40 1.43 1.47 1.55 1.62 1.58 1.63 1.60 1.54 1.52 1.40 1.38 1.48 1.61 1.76 1.93 2.07 2.18 2.28 2.35 2.15 2.20 2.32 2.24 2.23 2.25 2.34 2.58
0.61 0.58 0.60 0.67 0.64 0.65 0.74 0.81 0.86 0.88 0.99 1.16 1.17 1.13 1.20 1.19 1.24 1.31 1.38 1.51 1.56 1.60 1.64 1.65 1.58 1.52 1.56 1.65 1.72 1.78 1.92 2.05 2.13 2.22 2.21 2.15 2.26 2.17 2.20 2.26 2.23 2.21 2.26
0.59 0.53 0.58 0.62 0.66 0.68 0.72 0.80 0.86 0.91 0.99 1.01 1.02 1.06 1.09 1.13 1.23 1.33 1.36 1.40 1.39 1.46 1.49 1.49 1.56 1.60 1.65 1.70 1.70 1.70 1.74 1.82 1.90 1.89 1.80 1.73 1.79 1.86 2.00 2.00 2.00 2.06 2.13
0.54 0.45 0.45 0.54 0.64 0.70 0.71 0.77 0.84 0.92 1.04 1.06 1.04 1.09 1.15 1.15 1.19 1.22 1.22 1.24 1.32 1.34 1.50 1.53 1.62 1.68 1.65 1.56 1.61 1.62 1.54 1.72 1.69 1.56 1.50 1.51 1.60 1.63 1.70 1.63 1.70 1.85 1.93
0.55 0.53 0.52 0.59 0.64 0.65 0.67 0.68 0.68 0.78 0.96 1.05 1.15 1.24 1.23 1.13 1.16 1.17 1.15 1.19 1.31 1.41 1.50 1.56 1.67 1.69 1.54 1.58 1.62 1.64 1.62 1.68 1.64 1.56 1.50 1.39 1.40 1.39 1.42 1.46 1.51 1.63 1.76
0.51 0.58 0.63 0.65 0.64 0.63 0.60 0.60 0.60 0.73 1.01 1.11 1.13 1.27 1.34 1.24 1.29 1.32 1.31 1.31 1.36 1.46 1.55 1.68 1.74 1.70 1.72 1.62 1.50 1.53 1.52 1.58 1.63 1.64 1.63 1.38 1.22 1.32 1.30 1.43 1.40 1.36 1.42
0.50 0.58 0.59 0.60 0.61 0.61 0.63 0.64 0.66 0.72 0.97 1.14 1.20 1.40 1.55 1.44 1.45 1.45 1.47 1.50 1.54 1.59 1.71 1.76 1.68 1.65 1.67 1.59 1.35 1.29 1.21 1.32 1.44 1.53 1.58 1.57 1.47 1.44 1.46 1.51 1.50 1.43 1.41
0.59 0.61 0.64 0.65 0.71 0.77 0.80 0.80 0.88 0.99 1.13 1.24 1.35 1.56 1.75 1.79 1.74 1.69 1.77 1.81 1.81 1.84 1.90 1.95 1.90 1.79 1.76 1.57 1.26 1.15 1.12 1.26 1.34 1.39 1.39 1.38 1.30 1.31 1.24 1.27 1.34 1.35 1.32
0.65 0.76 0.86 0.84 0.85 0.93 0.93 0.97 1.08 1.27 1.40 1.41 1.41 1.52 1.72 1.79 1.77 1.76 1.90 2.04 2.06 2.04 2.07 1.97 1.83 1.74 1.72 1.63 1.33 1.16 1.13 1.28 1.36 1.45 1.44 1.39 1.32 1.28 1.14 1.10 1.18 1.18 1.18
0.66 0.72 0.74 0.83 0.94 1.04 1.11 1.21 1.26 1.33 1.37 1.37 1.39 1.49 1.71 1.99 1.94 1.95 2.01 2.13 2.18 2.20 2.21 2.11 2.00 1.87 1.82 1.78 1.46 1.30 1.24 1.33 1.39 1.34 1.35 1.32 1.29 1.09 0.99 0.98 1.04 1.08 1.08
0.70 0.70 0.69 0.80 0.96 1.14 1.31 1.35 1.33 1.36 1.43 1.43 1.46 1.55 1.78 1.88 1.94 2.05 2.10 2.22 2.31 2.31 2.27 2.27 2.13 2.05 1.97 1.72 1.45 1.26 1.25 1.34 1.44 1.44 1.40 1.36 1.22 0.98 0.87 0.78 0.75 0.79 0.79
0.74 0.81 0.81 0.87 0.97 1.11 1.32 1.45 1.45 1.45 1.43 1.40 1.40 1.49 1.63 1.70 1.83 1.92 1.86 1.91 2.01 2.02 2.05 2.09 2.05 2.05 2.14 2.00 1.57 1.27 1.20 1.27 1.38 1.52 1.59 1.39 1.21 1.07 0.93 0.86 0.78 0.70 0.67
0.87 0.89 0.90 0.92 0.98 1.06 1.24 1.37 1.36 1.39 1.42 1.36 1.30 1.40 1.59 1.70 1.77 1.83 1.80 1.86 1.91 1.95 2.01 2.03 1.98 2.00 2.14 2.13 1.81 1.48 1.29 1.20 1.18 1.22 1.25 1.17 1.11 1.00 0.89 0.81 0.72 0.64 0.67
0.90 0.86 0.86 0.89 0.91 0.97 1.16 1.31 1.33 1.37 1.45 1.41 1.35 1.41 1.52 1.62 1.76 1.81 1.84 1.84 1.84 1.80 1.81 1.83 1.79 1.79 1.91 1.91 1.68 1.48 1.33 1.21 1.17 1.18 1.23 1.21 1.20 1.10 1.00 0.93 0.88 0.86 0.88
0.89 0.91 0.93 0.93 0.90 0.97 1.11 1.23 1.40 1.56 1.59 1.50 1.45 1.40 1.38 1.44 1.52 1.59 1.55 1.47 1.42 1.40 1.36 1.37 1.29 1.28 1.44 1.43 1.19 1.06 1.08 1.07 1.04 1.05 1.13 1.21 1.25 1.20 1.13 1.08 1.02 1.03 1.00

GEFSMW_prec_meanprecacc_222.txt.gz
Total_Precipitation_Accumulation
1.91 2.12 2.43 2.92 3.72 4.46 5.14 5.24 5.48 5.01 4.37 3.84 3.46 3.35 3.15 2.83 2.71 2.57 2.39 2.24 2.03 1.89 2.08 1.93 1.97 1.83 1.89 1.92 2.04 2.27 2.38 2.04 2.17 2.59 2.18 1.56 1.22 1.22 1.08 1.03 1.07 1.09 1.15
2.02 2.37 2.90 3.29 3.31 3.85 4.56 4.61 4.31 4.08 3.64 3.26 3.10 2.93 2.87 2.55 2.35 2.20 2.18 1.98 1.83 1.83 1.84 1.95 1.83 1.78 1.86 1.87 1.94 2.16 2.15 1.89 2.08 2.54 2.66 2.12 1.73 1.42 1.03 1.01 1.05 1.17 1.36
1.88 2.31 2.73 3.16 3.13 3.51 3.60 3.23 3.07 3.15 3.09 2.93 2.81 2.68 2.68 2.48 2.21 2.02 1.99 1.82 1.62 1.62 1.64 1.63 1.68 1.78 1.60 1.74 1.91 2.05 2.17 2.05 1.97 2.23 2.65 2.45 2.09 1.76 1.40 1.27 1.35 1.46 1.59
1.34 1.63 1.97 2.39 2.58 2.67 2.59 2.55 2.53 2.57 2.76 2.77 2.54 2.35 2.07 1.97 1.90 1.78 1.82 1.80 1.57 1.49 1.50 1.48 1.63 1.70 1.64 1.83 1.59 1.71 2.00 2.21 2.03 2.02 2.07 2.08 2.29 2.29 1.90 1.55 1.42 1.54 1.67
1.03 1.17 1.27 1.48 1.77 2.02 2.08 2.07 2.34 2.43 2.46 2.45 2.39 2.39 2.12 1.94 1.89 1.99 2.19 2.10 1.79 1.48 1.33 1.42 1.57 1.65 1.68 1.75 1.70 1.80 1.78 1.86 1.88 1.93 1.92 2.02 2.24 2.14 2.08 1.90 1.71 1.64 1.49
0.79 0.98 1.03 1.06 1.20 1.35 1.48 1.60 1.86 2.07 2.14 2.11 2.12 2.17 2.17 2.12 1.95 1.88 1.93 1.84 1.70 1.52 1.35 1.38 1.59 1.65 1.69 1.71 1.73 1.71 1.65 1.72 1.80 1.85 1.88 2.02 2.04 2.00 2.11 2.00 1.82 1.74 1.49
0.61 0.81 0.80 0.84 0.95 0.98 1.09 1.27 1.48 1.64 1.76 1.84 1.90 1.96 2.13 2.06 1.84 1.65 1.67 1.64 1.49 1.41 1.38 1.36 1.63 1.73 1.72 1.71 1.78 1.75 1.73 1.82 1.87 1.88 1.92 1.96 1.92 1.94 2.11 2.14 1.89 1.78 1.60
0.55 0.62 0.57 0.58 0.73 0.80 0.88 1.04 1.17 1.26 1.38 1.60 1.82 1.79 1.89 1.75 1.62 1.73 1.63 1.52 1.33 1.36 1.56 1.67 1.70 1.67 1.71 1.74 1.96 1.82 1.82 1.90 1.92 1.84 2.11 2.06 1.91 2.09 2.28 2.44 2.48 2.19 1.99
0.52 0.50 0.44 0.45 0.49 0.54 0.62 0.79 1.07 1.16 1.21 1.29 1.51 1.61 1.59 1.60 1.66 1.78 1.73 1.61 1.53 1.40 1.57 1.72 1.81 1.72 1.70 1.80 2.01 1.97 2.00 2.10 2.02 2.02 2.24 2.19 2.07 2.10 2.16 2.39 2.64 2.68 2.44
0.59 0.61 0.45 0.40 0.42 0.42 0.51 0.62 0.81 1.02 1.20 1.20 1.20 1.25 1.48 1.55 1.66 1.70 1.59 1.58 1.56 1.55 1.60 1.57 1.60 1.58 1.58 1.71 2.00 2.01 2.06 2.22 2.17 2.15 2.19 2.20 2.10 2.16 2.13 2.24 2.53 2.77 2.79
0.50 0.56 0.39 0.32 0.36 0.39 0.47 0.60 0.74 1.01 1.19 1.10 1.13 1.26 1.42 1.51 1.56 1.69 1.67 1.61 1.58 1.61 1.55 1.51 1.52 1.49 1.42 1.50 1.69 1.82 2.02 2.15 2.21 2.19 2.23 2.23 2.32 2.35 2.22 2.30 2.41 2.59 2.75
0.52 0.54 0.45 0.47 0.50 0.54 0.58 0.68 0.77 0.90 1.02 1.07 1.16 1.23 1.34 1.42 1.45 1.49 1.58 1.65 1.62 1.68 1.64 1.58 1.55 1.42 1.40 1.50 1.62 1.77 1.94 2.09 2.20 2.31 2.39 2.19 2.25 2.38 2.32 2.30 2.33 2.42 2.68
0.61 0.58 0.60 0.67 0.64 0.65 0.74 0.81 0.87 0.88 0.99 1.16 1.18 1.15 1.22 1.21 1.26 1.34 1.42 1.54 1.60 1.63 1.68 1.68 1.60 1.54 1.58 1.66 1.73 1.80 1.94 2.06 2.14 2.24 2.23 2.17 2.30 2.22 2.25 2.32 2.30 2.28 2.33
0.59 0.53 0.58 0.62 0.66 0.68 0.72 0.80 0.87 0.92 1.00 1.01 1.03 1.07 1.11 1.15 1.25 1.35 1.39 1.44 1.42 1.48 1.51 1.51 1.59 1.62 1.67 1.71 1.71 1.71 1.75 1.83 1.91 1.90 1.81 1.75 1.81 1.89 2.03 2.04 2.05 2.12 2.20
0.54 0.45 0.45 0.54 0.64 0.70 0.72 0.79 0.85 0.94 1.08 1.08 1.06 1.10 1.16 1.16 1.20 1.24 1.25 1.27 1.34 1.36 1.52 1.56 1.64 1.70 1.68 1.59 1.63 1.63 1.55 1.73 1.70 1.57 1.51 1.52 1.62 1.64 1.72 1.65 1.74 1.90 1.99
0.55 0.53 0.53 0.60 0.64 0.66 0.68 0.71 0.72 0.82 0.98 1.06 1.16 1.25 1.24 1.14 1.18 1.19 1.17 1.22 1.33 1.42 1.52 1.58 1.69 1.74 1.59 1.63 1.66 1.67 1.64 1.70 1.66 1.59 1.52 1.41 1.41 1.40 1.44 1.48 1.53 1.66 1.79
0.51 0.58 0.63 0.65 0.65 0.65 0.63 0.64 0.62 0.74 1.02 1.12 1.14 1.28 1.35 1.25 1.30 1.33 1.32 1.33 1.38 1.49 1.57 1.71 1.78 1.76 1.79 1.69 1.56 1.58 1.56 1.61 1.65 1.67 1.66 1.40 1.22 1.32 1.31 1.44 1.41 1.38 1.44
0.50 0.58 0.60 0.61 0.63 0.64 0.65 0.65 0.66 0.73 0.98 1.15 1.21 1.41 1.56 1.46 1.47 1.47 1.49 1.52 1.57 1.62 1.75 1.79 1.71 1.68 1.71 1.63 1.39 1.32 1.24 1.35 1.46 1.54 1.60 1.58 1.48 1.45 1.46 1.52 1.51 1.44 1.43
0.59 0.61 0.65 0.67 0.73 0.80 0.82 0.82 0.89 0.99 1.13 1.25 1.36 1.58 1.77 1.81 1.78 1.72 1.80 1.84 1.85 1.87 1.93 1.97 1.92 1.80 1.76 1.57 1.27 1.15 1.13 1.27 1.35 1.40 1.40 1.38 1.30 1.31 1.24 1.27 1.35 1.36 1.33
0.65 0.77 0.87 0.86 0.87 0.95 0.95 0.98 1.09 1.28 1.41 1.43 1.45 1.56 1.75 1.83 1.81 1.80 1.95 2.08 2.10 2.07 2.09 1.98 1.85 1.75 1.72 1.64 1.33 1.16 1.13 1.28 1.36 1.46 1.44 1.40 1.32 1.28 1.14 1.11 1.18 1.18 1.19
0.66 0.72 0.75 0.86 0.97 1.07 1.14 1.24 1.28 1.36 1.40 1.41 1.44 1.53 1.76 2.05 1.98 2.00 2.06 2.16 2.20 2.22 2.23 2.14 2.02 1.89 1.83 1.79 1.47 1.30 1.24 1.33 1.39 1.34 1.35 1.33 1.29 1.09 0.99 0.98 1.04 1.09 1.08
0.70 0.71 0.71 0.82 0.99 1.18 1.35 1.39 1.38 1.40 1.48 1.49 1.51 1.59 1.82 1.92 1.97 2.09 2.14 2.25 2.34 2.33 2.29 2.29 2.15 2.08 1.99 1.73 1.46 1.27 1.25 1.34 1.45 1.44 1.40 1.36 1.22 0.98 0.87 0.78 0.75 0.79 0.79
0.74 0.81 0.83 0.88 0.98 1.15 1.36 1.49 1.50 1.49 1.47 1.44 1.44 1.53 1.66 1.73 1.86 1.94 1.89 1.94 2.05 2.05 2.08 2.12 2.08 2.09 2.17 2.03 1.59 1.29 1.21 1.27 1.38 1.52 1.59 1.39 1.21 1.07 0.93 0.86 0.78 0.70 0.67
0.88 0.90 0.91 0.93 1.00 1.09 1.27 1.41 1.39 1.41 1.44 1.38 1.34 1.44 1.63 1.73 1.80 1.86 1.84 1.89 1.95 1.99 2.05 2.06 2.01 2.02 2.16 2.16 1.83 1.51 1.31 1.21 1.18 1.22 1.25 1.17 1.11 1.00 0.89 0.81 0.72 0.64 0.68
0.91 0.88 0.87 0.91 0.93 1.01 1.21 1.35 1.36 1.39 1.47 1.44 1.39 1.45 1.55 1.65 1.79 1.84 1.87 1.89 1.89 1.86 1.85 1.86 1.82 1.82 1.93 1.93 1.71 1.51 1.36 1.23 1.18 1.18 1.23 1.22 1.21 1.11 1.01 0.93 0.88 0.87 0.88
0.90 0.93 0.95 0.94 0.93 1.00 1.15 1.27 1.43 1.58 1.61 1.53 1.48 1.44 1.41 1.48 1.56 1.63 1.59 1.53 1.49 1.47 1.41 1.42 1.33 1.32 1.47 1.46 1.22 1.09 1.11 1.09 1.05 1.06 1.14 1.21 1.25 1.20 1.13 1.08 1.02 1.03 1.00

GEFSMW_prec_meanprecacc_228.txt.gz
Total_Precipitation_Accumulation
1.96 2.14 2.44 2.93 3.73 4.47 5.14 5.25 5.49 5.02 4.38 3.85 3.48 3.37 3.16 2.85 2.72 2.59 2.41 2.26 2.05 1.91 2.10 1.94 2.00 1.86 1.93 1.95 2.07 2.31 2.42 2.08 2.21 2.65 2.26 1.67 1.34 1.35 1.22 1.18 1.25 1.29 1.30
2.03 2.38 2.90 3.30 3.33 3.87 4.56 4.61 4.32 4.09 3.64 3.26 3.11 2.94 2.88 2.56 2.37 2.21 2.21 2.01 1.85 1.85 1.85 1.98 1.86 1.82 1.93 1.93 2.01 2.20 2.20 1.94 2.14 2.61 2.71 2.17 1.80 1.52 1.13 1.12 1.19 1.31 1.50
1.89 2.31 2.73 3.16 3.14 3.52 3.60 3.23 3.07 3.15 3.10 2.94 2.83 2.70 2.69 2.49 2.22 2.04 2.01 1.84 1.64 1.65 1.66 1.67 1.74 1.85 1.68 1.80 1.97 2.11 2.23 2.11 2.03 2.31 2.71 2.49 2.14 1.82 1.45 1.33 1.42 1.56 1.70
1.35 1.63 1.97 2.39 2.59 2.68 2.59 2.55 2.53 2.58 2.77 2.77 2.54 2.36 2.09 1.99 1.91 1.80 1.84 1.82 1.59 1.52 1.53 1.52 1.67 1.75 1.69 1.89 1.66 1.78 2.07 2.27 2.07 2.08 2.13 2.15 2.34 2.33 1.94 1.60 1.50 1.62 1.76
1.04 1.18 1.27 1.48 1.77 2.02 2.08 2.07 2.35 2.44 2.48 2.46 2.41 2.41 2.14 1.96 1.90 2.02 2.22 2.14 1.83 1.51 1.35 1.45 1.59 1.68 1.72 1.80 1.75 1.86 1.85 1.93 1.96 2.00 1.99 2.08 2.29 2.18 2.12 1.95 1.76 1.69 1.54
0.81 0.99 1.03 1.06 1.20 1.35 1.48 1.60 1.86 2.08 2.16 2.12 2.13 2.19 2.18 2.14 1.96 1.90 1.95 1.89 1.75 1.55 1.39 1.42 1.62 1.68 1.72 1.74 1.78 1.78 1.73 1.81 1.90 1.95 1.97 2.10 2.10 2.04 2.15 2.06 1.88 1.78 1.52
0.64 0.81 0.80 0.84 0.95 0.98 1.09 1.27 1.48 1.64 1.76 1.84 1.92 1.98 2.15 2.08 1.86 1.66 1.69 1.68 1.54 1.45 1.43 1.41 1.66 1.76 1.74 1.72 1.81 1.79 1.77 1.88 1.94 1.96 1.99 2.04 2.00 1.99 2.16 2.21 1.95 1.81 1.64
0.56 0.62 0.57 0.58 0.73 0.80 0.88 1.04 1.17 1.26 1.38 1.60 1.83 1.81 1.91 1.77 1.64 1.74 1.65 1.54 1.35 1.38 1.59 1.70 1.72 1.69 1.73 1.75 1.98 1.83 1.84 1.92 1.95 1.88 2.17 2.12 1.98 2.16 2.36 2.52 2.56 2.25 2.04
0.53 0.51 0.44 0.46 0.49 0.54 0.62 0.79 1.07 1.17 1.21 1.30 1.52 1.62 1.60 1.61 1.67 1.80 1.74 1.62 1.54 1.41 1.59 1.74 1.83 1.74 1.72 1.82 2.03 1.99 2.03 2.13 2.04 2.04 2.27 2.22 2.11 2.16 2.23 2.49 2.75 2.77 2.51
0.59 0.62 0.45 0.41 0.43 0.42 0.51 0.62 0.81 1.02 1.21 1.21 1.21 1.25 1.49 1.56 1.67 1.71 1.60 1.59 1.57 1.56 1.61 1.57 1.62 1.61 1.60 1.73 2.02 2.04 2.09 2.24 2.19 2.17 2.21 2.22 2.12 2.19 2.17 2.29 2.62 2.89 2.90
0.52 0.58 0.40 0.33 0.37 0.40 0.47 0.61 0.75 1.03 1.23 1.14 1.15 1.26 1.43 1.52 1.57 1.71 1.69 1.62 1.60 1.63 1.57 1.52 1.55 1.52 1.45 1.52 1.71 1.83 2.03 2.16 2.21 2.19 2.24 2.24 2.33 2.36 2.25 2.34 2.46 2.68 2.85
0.54 0.56 0.47 0.48 0.50 0.55 0.58 0.70 0.80 0.97 1.09 1.11 1.18 1.24 1.34 1.42 1.47 1.52 1.60 1.67 1.64 1.69 1.66 1.61 1.58 1.45 1.42 1.51 1.64 1.78 1.95 2.10 2.21 2.31 2.39 2.19 2.26 2.39 2.33 2.33 2.36 2.46 2.73
0.64 0.59 0.62 0.70 0.67 0.70 0.78 0.85 0.93 0.96 1.04 1.19 1.19 1.16 1.23 1.22 1.27 1.35 1.44 1.57 1.62 1.66 1.70 1.71 1.64 1.57 1.59 1.68 1.74 1.81 1.95 2.08 2.15 2.24 2.23 2.18 2.31 2.23 2.26 2.33 2.31 2.30 2.37
0.65 0.55 0.61 0.66 0.71 0.73 0.80 0.89 0.94 0.97 1.03 1.05 1.06 1.09 1.12 1.17 1.27 1.36 1.41 1.47 1.44 1.51 1.54 1.54 1.62 1.64 1.69 1.72 1.73 1.73 1.78 1.86 1.93 1.91 1.82 1.75 1.82 1.89 2.04 2.05 2.06 2.14 2.23
0.63 0.51 0.53 0.61 0.71 0.75 0.75 0.82 0.92 0.98 1.11 1.11 1.08 1.12 1.19 1.18 1.22 1.25 1.27 1.30 1.36 1.38 1.54 1.59 1.67 1.72 1.69 1.60 1.65 1.66 1.58 1.76 1.73 1.59 1.53 1.54 1.63 1.65 1.73 1.66 1.75 1.92 2.00
0.59 0.58 0.63 0.70 0.70 0.69 0.70 0.73 0.74 0.84 1.01 1.08 1.18 1.27 1.26 1.16 1.19 1.21 1.20 1.25 1.36 1.45 1.55 1.61 1.71 1.75 1.60 1.64 1.68 1.69 1.67 1.72 1.68 1.63 1.56 1.44 1.43 1.41 1.45 1.49 1.53 1.67 1.81
0.53 0.61 0.67 0.71 0.71 0.69 0.67 0.67 0.66 0.77 1.05 1.15 1.17 1.31 1.38 1.29 1.33 1.36 1.35 1.36 1.40 1.53 1.60 1.73 1.79 1.77 1.79 1.70 1.57 1.59 1.57 1.63 1.67 1.68 1.67 1.41 1.24 1.34 1.32 1.44 1.42 1.39 1.45
0.52 0.61 0.62 0.63 0.65 0.67 0.69 0.69 0.70 0.76 1.00 1.18 1.24 1.46 1.61 1.51 1.52 1.51 1.53 1.56 1.61 1.66 1.79 1.82 1.73 1.69 1.71 1.63 1.39 1.33 1.25 1.37 1.48 1.56 1.62 1.61 1.50 1.46 1.47 1.52 1.52 1.45 1.43
0.61 0.63 0.67 0.69 0.75 0.82 0.85 0.84 0.92 1.03 1.17 1.30 1.42 1.64 1.84 1.90 1.85 1.77 1.85 1.90 1.90 1.91 1.97 2.00 1.95 1.82 1.78 1.58 1.28 1.17 1.14 1.29 1.37 1.43 1.43 1.42 1.33 1.33 1.25 1.28 1.35 1.37 1.33
0.66 0.77 0.88 0.87 0.89 0.97 0.97 1.01 1.13 1.32 1.46 1.48 1.51 1.63 1.83 1.91 1.88 1.86 2.01 2.15 2.15 2.11 2.13 2.02 1.89 1.78 1.75 1.67 1.35 1.18 1.15 1.29 1.38 1.47 1.46 1.42 1.35 1.30 1.16 1.12 1.19 1.19 1.19
0.67 0.73 0.76 0.87 0.97 1.08 1.16 1.27 1.33 1.41 1.45 1.47 1.49 1.58 1.81 2.11 2.04 2.05 2.11 2.23 2.27 2.29 2.31 2.20 2.08 1.93 1.88 1.83 1.50 1.32 1.25 1.34 1.40 1.35 1.36 1.34 1.30 1.11 1.01 0.99 1.05 1.09 1.08
0.72 0.72 0.71 0.83 1.00 1.19 1.37 1.42 1.41 1.44 1.54 1.55 1.55 1.63 1.87 1.96 2.00 2.12 2.17 2.30 2.39 2.39 2.34 2.34 2.19 2.13 2.05 1.79 1.52 1.33 1.30 1.37 1.46 1.46 1.41 1.37 1.23 0.99 0.88 0.78 0.76 0.80 0.80
0.82 0.84 0.84 0.90 1.00 1.17 1.38 1.52 1.53 1.53 1.51 1.48 1.47 1.56 1.69 1.76 1.89 1.97 1.93 1.99 2.11 2.12 2.15 2.17 2.12 2.14 2.22 2.07 1.64 1.34 1.26 1.31 1.40 1.54 1.60 1.40 1.22 1.07 0.93 0.87 0.78 0.71 0.68
0.95 0.94 0.96 0.98 1.04 1.13 1.31 1.45 1.44 1.48 1.48 1.42 1.38 1.47 1.67 1.77 1.84 1.89 1.88 1.94 2.01 2.06 2.12 2.13 2.06 2.07 2.21 2.19 1.86 1.54 1.35 1.25 1.21 1.25 1.27 1.19 1.12 1.01 0.90 0.81 0.72 0.64 0.68
0.95 0.92 0.93 0.96 0.98 1.06 1.27 1.41 1.42 1.46 1.52 1.49 1.44 1.51 1.61 1.72 1.85 1.90 1.93 1.95 1.96 1.92 1.91 1.92 1.87 1.87 1.97 1.96 1.75 1.54 1.39 1.27 1.22 1.21 1.25 1.23 1.22 1.11 1.01 0.94 0.88 0.87 0.88
0.95 0.97 1.00 0.99 0.98 1.06 1.21 1.34 1.49 1.63 1.66 1.58 1.53 1.49 1.48 1.56 1.63 1.69 1.65 1.58 1.53 1.51 1.46 1.46 1.38 1.36 1.50 1.49 1.25 1.12 1.14 1.14 1.10 1.10 1.16 1.23 1.26 1.21 1.14 1.09 1.03 1.03 1.01

GEFSMW_prec_meanprecacc_234.txt.gz
Total_Precipitation_Accumulation
1.97 2.14 2.45 2.93 3.74 4.47 5.15 5.25 5.51 5.04 4.41 3.87 3.49 3.37 3.17 2.86 2.74 2.61 2.45 2.30 2.07 1.95 2.15 1.99 2.04 1.91 1.98 2.00 2.11 2.36 2.48 2.14 2.26 2.70 2.30 1.71 1.38 1.40 1.28 1.24 1.32 1.36 1.40
2.04 2.38 2.91 3.30 3.33 3.87 4.57 4.61 4.32 4.10 3.67 3.28 3.12 2.95 2.89 2.57 2.38 2.24 2.24 2.04 1.90 1.90 1.90 2.02 1.90 1.87 1.98 1.98 2.05 2.26 2.26 2.00 2.20 2.66 2.75 2.22 1.85 1.57 1.22 1.19 1.26 1.38 1.58
1.89 2.31 2.73 3.17 3.14 3.52 3.60 3.23 3.08 3.16 3.11 2.95 2.85 2.72 2.70 2.50 2.23 2.06 2.03 1.88 1.69 1.69 1.70 1.71 1.77 1.88 1.71 1.84 2.01 2.16 2.27 2.14 2.08 2.36 2.75 2.51 2.16 1.84 1.48 1.37 1.48 1.61 1.77
1.35 1.63 1.97 2.39 2.59 2.68 2.59 2.56 2.54 2.58 2.78 2.79 2.57 2.38 2.10 2.00 1.93 1.82 1.87 1.85 1.62 1.54 1.56 1.56 1.71 1.79 1.74 1.93 1.69 1.81 2.09 2.28 2.10 2.14 2.19 2.20 2.37 2.36 1.98 1.64 1.53 1.65 1.80
1.04 1.18 1.27 1.48 1.77 2.02 2.09 2.07 2.35 2.45 2.48 2.47 2.43 2.43 2.16 1.98 1.94 2.05 2.24 2.17 1.84 1.52 1.37 1.47 1.62 1.72 1.77 1.84 1.78 1.88 1.87 1.95 1.99 2.06 2.06 2.16 2.35 2.23 2.15 1.97 1.78 1.71 1.56
0.82 0.99 1.03 1.07 1.20 1.35 1.48 1.60 1.87 2.08 2.16 2.13 2.15 2.21 2.21 2.17 2.00 1.93 1.98 1.91 1.77 1.57 1.40 1.44 1.63 1.71 1.75 1.76 1.80 1.80 1.74 1.83 1.92 1.98 2.01 2.15 2.16 2.10 2.20 2.08 1.89 1.80 1.54
0.64 0.82 0.81 0.85 0.95 0.99 1.09 1.27 1.48 1.65 1.77 1.85 1.94 2.00 2.18 2.12 1.89 1.68 1.71 1.70 1.56 1.47 1.45 1.43 1.69 1.78 1.76 1.75 1.83 1.80 1.78 1.90 1.97 1.99 2.03 2.09 2.05 2.05 2.22 2.25 1.98 1.84 1.66
0.57 0.62 0.57 0.59 0.74 0.80 0.88 1.04 1.17 1.26 1.38 1.60 1.83 1.82 1.94 1.79 1.66 1.76 1.66 1.56 1.37 1.40 1.61 1.72 1.75 1.72 1.76 1.77 1.99 1.85 1.86 1.94 1.97 1.90 2.20 2.15 2.02 2.22 2.42 2.56 2.60 2.29 2.07
0.53 0.51 0.44 0.46 0.50 0.55 0.62 0.79 1.07 1.17 1.21 1.30 1.52 1.63 1.62 1.62 1.69 1.81 1.75 1.63 1.56 1.45 1.62 1.77 1.85 1.77 1.75 1.84 2.05 2.00 2.04 2.14 2.05 2.06 2.28 2.23 2.13 2.18 2.25 2.52 2.79 2.83 2.57
0.60 0.63 0.46 0.41 0.44 0.43 0.51 0.63 0.81 1.02 1.21 1.21 1.21 1.26 1.50 1.57 1.68 1.72 1.62 1.61 1.58 1.58 1.64 1.61 1.65 1.64 1.62 1.75 2.05 2.05 2.10 2.26 2.20 2.19 2.23 2.24 2.14 2.21 2.20 2.33 2.67 2.95 2.96
0.52 0.59 0.41 0.33 0.37 0.41 0.48 0.62 0.76 1.04 1.23 1.15 1.16 1.27 1.44 1.53 1.58 1.73 1.71 1.64 1.61 1.65 1.60 1.55 1.58 1.56 1.46 1.53 1.72 1.84 2.04 2.17 2.23 2.22 2.26 2.26 2.36 2.39 2.28 2.37 2.50 2.72 2.89
0.54 0.57 0.49 0.49 0.51 0.56 0.60 0.71 0.83 1.01 1.12 1.14 1.21 1.27 1.37 1.44 1.48 1.53 1.62 1.69 1.67 1.71 1.68 1.63 1.59 1.47 1.44 1.53 1.65 1.79 1.96 2.11 2.23 2.34 2.42 2.22 2.29 2.42 2.35 2.35 2.38 2.49 2.77
0.65 0.60 0.63 0.72 0.69 0.71 0.81 0.88 0.97 1.03 1.13 1.26 1.26 1.21 1.27 1.25 1.29 1.37 1.45 1.59 1.64 1.68 1.72 1.73 1.66 1.60 1.63 1.71 1.76 1.82 1.96 2.09 2.17 2.26 2.25 2.20 2.33 2.24 2.27 2.35 2.33 2.33 2.40
0.66 0.56 0.63 0.69 0.72 0.75 0.84 0.95 1.00 1.03 1.12 1.16 1.18 1.18 1.16 1.20 1.30 1.39 1.43 1.48 1.46 1.53 1.56 1.56 1.65 1.68 1.72 1.75 1.74 1.74 1.79 1.87 1.94 1.93 1.84 1.78 1.85 1.93 2.07 2.07 2.08 2.16 2.24
0.64 0.52 0.54 0.63 0.73 0.79 0.79 0.85 0.94 1.02 1.16 1.17 1.13 1.16 1.22 1.22 1.26 1.29 1.30 1.33 1.40 1.42 1.59 1.62 1.69 1.74 1.72 1.62 1.67 1.67 1.59 1.76 1.73 1.60 1.55 1.56 1.66 1.69 1.77 1.70 1.78 1.94 2.02
0.61 0.59 0.65 0.73 0.73 0.72 0.72 0.75 0.76 0.87 1.05 1.15 1.25 1.31 1.30 1.21 1.25 1.25 1.24 1.29 1.40 1.49 1.58 1.63 1.73 1.77 1.63 1.66 1.69 1.69 1.68 1.72 1.69 1.63 1.56 1.45 1.45 1.43 1.47 1.51 1.56 1.69 1.82
0.54 0.62 0.69 0.73 0.73 0.72 0.69 0.69 0.69 0.81 1.08 1.18 1.20 1.35 1.43 1.34 1.39 1.41 1.40 1.41 1.45 1.57 1.64 1.77 1.82 1.79 1.81 1.71 1.58 1.60 1.58 1.64 1.67 1.69 1.68 1.41 1.24 1.34 1.33 1.45 1.43 1.40 1.46
0.52 0.61 0.63 0.64 0.67 0.70 0.71 0.71 0.73 0.79 1.03 1.20 1.28 1.50 1.65 1.56 1.57 1.57 1.60 1.65 1.70 1.74 1.85 1.87 1.76 1.70 1.73 1.65 1.41 1.34 1.26 1.37 1.49 1.56 1.63 1.61 1.51 1.47 1.48 1.53 1.53 1.46 1.44
0.61 0.64 0.68 0.70 0.76 0.83 0.86 0.86 0.94 1.05 1.19 1.32 1.45 1.67 1.88 1.93 1.89 1.83 1.91 1.96 1.96 1.96 2.02 2.04 1.98 1.85 1.81 1.62 1.31 1.20 1.15 1.30 1.38 1.44 1.44 1.43 1.34 1.35 1.27 1.30 1.37 1.39 1.35
0.67 0.78 0.89 0.89 0.92 0.99 0.99 1.02 1.14 1.34 1.47 1.50 1.53 1.66 1.86 1.94 1.92 1.90 2.06 2.19 2.19 2.14 2.17 2.07 1.93 1.83 1.81 1.74 1.43 1.25 1.18 1.31 1.39 1.48 1.47 1.44 1.37 1.32 1.18 1.14 1.21 1.21 1.21
0.70 0.76 0.79 0.91 1.01 1.11 1.18 1.29 1.35 1.43 1.47 1.49 1.51 1.60 1.84 2.13 2.07 2.08 2.15 2.26 2.30 2.32 2.34 2.25 2.13 1.99 1.94 1.90 1.58 1.39 1.30 1.38 1.43 1.37 1.38 1.36 1.34 1.14 1.04 1.02 1.07 1.12 1.10
0.75 0.75 0.74 0.86 1.03 1.22 1.40 1.45 1.43 1.47 1.56 1.57 1.57 1.66 1.89 2.00 2.04 2.17 2.22 2.33 2.43 2.42 2.38 2.37 2.23 2.18 2.11 1.85 1.58 1.39 1.36 1.42 1.50 1.48 1.44 1.40 1.26 1.02 0.92 0.82 0.79 0.84 0.82
0.84 0.85 0.86 0.93 1.05 1.21 1.42 1.56 1.58 1.58 1.55 1.51 1.49 1.58 1.73 1.81 1.95 2.04 1.97 2.03 2.15 2.14 2.18 2.20 2.16 2.19 2.28 2.13 1.69 1.39 1.30 1.34 1.43 1.57 1.63 1.43 1.24 1.09 0.96 0.89 0.80 0.73 0.69
1.00 0.99 1.02 1.03 1.08 1.18 1.36 1.51 1.51 1.53 1.53 1.45 1.41 1.52 1.72 1.82 1.89 1.94 1.92 1.98 2.05 2.10 2.17 2.19 2.12 2.12 2.24 2.22 1.90 1.58 1.39 1.29 1.25 1.28 1.29 1.21 1.14 1.03 0.91 0.83 0.73 0.65 0.68
1.01 1.01 1.04 1.06 1.05 1.12 1.32 1.46 1.47 1.51 1.57 1.54 1.50 1.58 1.69 1.78 1.90 1.94 1.99 2.01 2.02 1.99 1.99 1.98 1.91 1.90 2.00 2.00 1.79 1.58 1.43 1.30 1.24 1.23 1.26 1.24 1.23 1.13 1.03 0.95 0.90 0.89 0.90
1.01 1.05 1.11 1.09 1.06 1.11 1.25 1.38 1.53 1.68 1.72 1.65 1.60 1.56 1.54 1.62 1.69 1.74 1.71 1.65 1.60 1.58 1.52 1.50 1.41 1.39 1.54 1.53 1.28 1.15 1.17 1.17 1.13 1.11 1.17 1.23 1.27 1.22 1.15 1.11 1.05 1.05 1.03

GEFSMW_prec_meanprecacc_240.txt.gz
Total_Precipitation_Accumulation
1.97 2.14 2.45 2.93 3.74 4.47 5.15 5.29 5.58 5.07 4.43 3.89 3.53 3.42 3.22 2.91 2.78 2.64 2.48 2.34 2.12 2.01 2.25 2.10 2.17 2.04 2.10 2.12 2.23 2.47 2.57 2.22 2.34 2.77 2.35 1.75 1.42 1.42 1.30 1.28 1.37 1.42 1.46
2.04 2.38 2.91 3.30 3.33 3.87 4.57 4.62 4.34 4.12 3.68 3.30 3.15 2.99 2.93 2.60 2.41 2.27 2.27 2.07 1.93 1.95 1.97 2.13 2.01 1.97 2.08 2.07 2.13 2.33 2.33 2.05 2.26 2.72 2.81 2.26 1.89 1.60 1.25 1.23 1.30 1.43 1.64
1.89 2.31 2.73 3.17 3.14 3.52 3.60 3.23 3.09 3.18 3.13 2.97 2.87 2.73 2.73 2.53 2.26 2.09 2.07 1.92 1.72 1.72 1.75 1.77 1.84 1.96 1.76 1.89 2.06 2.21 2.32 2.19 2.12 2.40 2.81 2.58 2.21 1.88 1.52 1.39 1.50 1.65 1.82
1.35 1.63 1.97 2.39 2.59 2.68 2.59 2.56 2.55 2.59 2.79 2.80 2.58 2.40 2.13 2.04 1.97 1.86 1.90 1.89 1.64 1.56 1.58 1.60 1.75 1.84 1.78 1.99 1.73 1.85 2.14 2.35 2.16 2.18 2.23 2.25 2.44 2.42 2.02 1.66 1.55 1.68 1.83
1.04 1.18 1.27 1.49 1.77 2.02 2.09 2.08 2.36 2.46 2.49 2.48 2.44 2.46 2.20 2.03 1.98 2.09 2.28 2.20 1.86 1.54 1.38 1.49 1.64 1.75 1.80 1.88 1.82 1.92 1.91 1.99 2.04 2.12 2.10 2.21 2.41 2.28 2.20 2.01 1.81 1.74 1.60
0.82 0.99 1.03 1.07 1.20 1.35 1.48 1.60 1.87 2.09 2.17 2.14 2.15 2.22 2.24 2.21 2.03 1.97 2.03 1.95 1.79 1.59 1.42 1.46 1.66 1.73 1.77 1.79 1.84 1.85 1.79 1.87 1.97 2.02 2.04 2.20 2.23 2.17 2.26 2.13 1.94 1.84 1.59
0.64 0.82 0.81 0.85 0.95 0.99 1.09 1.28 1.48 1.66 1.77 1.86 1.94 2.01 2.21 2.16 1.93 1.72 1.76 1.74 1.58 1.49 1.49 1.46 1.72 1.81 1.79 1.77 1.86 1.83 1.82 1.93 2.00 2.02 2.06 2.12 2.09 2.10 2.28 2.32 2.05 1.91 1.72
0.57 0.62 0.57 0.59 0.74 0.80 0.88 1.04 1.18 1.27 1.38 1.61 1.83 1.83 1.97 1.84 1.71 1.82 1.71 1.61 1.41 1.44 1.64 1.75 1.77 1.74 1.78 1.79 2.01 1.87 1.89 1.97 2.00 1.92 2.23 2.19 2.06 2.26 2.47 2.63 2.66 2.34 2.11
0.53 0.51 0.45 0.46 0.50 0.55 0.62 0.80 1.07 1.17 1.21 1.30 1.52 1.63 1.63 1.65 1.73 1.87 1.81 1.68 1.59 1.47 1.65 1.80 1.88 1.80 1.78 1.87 2.08 2.03 2.07 2.17 2.08 2.08 2.31 2.26 2.16 2.22 2.29 2.57 2.85 2.88 2.61
0.60 0.63 0.47 0.42 0.45 0.44 0.52 0.64 0.82 1.03 1.21 1.21 1.21 1.26 1.51 1.58 1.70 1.75 1.65 1.64 1.61 1.61 1.68 1.64 1.68 1.68 1.66 1.78 2.09 2.09 2.13 2.30 2.24 2.21 2.25 2.27 2.18 2.25 2.25 2.38 2.72 3.00 3.02
0.53 0.59 0.42 0.35 0.38 0.42 0.49 0.62 0.76 1.04 1.24 1.15 1.17 1.28 1.44 1.54 1.60 1.75 1.73 1.67 1.65 1.69 1.64 1.58 1.62 1.60 1.51 1.58 1.77 1.88 2.07 2.20 2.26 2.24 2.28 2.28 2.39 2.43 2.33 2.43 2.56 2.77 2.94
0.55 0.58 0.50 0.50 0.52 0.56 0.60 0.72 0.84 1.02 1.13 1.15 1.22 1.28 1.38 1.45 1.50 1.56 1.64 1.71 1.69 1.74 1.71 1.66 1.63 1.52 1.50 1.58 1.69 1.83 2.00 2.14 2.25 2.36 2.44 2.24 2.32 2.44 2.38 2.39 2.42 2.53 2.80
0.65 0.61 0.64 0.72 0.69 0.71 0.81 0.89 0.97 1.03 1.14 1.27 1.27 1.23 1.29 1.27 1.33 1.42 1.48 1.60 1.66 1.70 1.75 1.77 1.69 1.64 1.67 1.74 1.79 1.85 1.99 2.11 2.18 2.29 2.28 2.22 2.35 2.27 2.31 2.38 2.37 2.37 2.44
0.67 0.57 0.64 0.69 0.73 0.75 0.85 0.96 1.00 1.03 1.12 1.16 1.20 1.23 1.23 1.26 1.36 1.44 1.47 1.52 1.49 1.55 1.59 1.60 1.68 1.72 1.76 1.80 1.79 1.78 1.81 1.88 1.95 1.94 1.85 1.79 1.85 1.94 2.10 2.11 2.12 2.20 2.27
0.65 0.53 0.55 0.63 0.73 0.79 0.80 0.85 0.94 1.02 1.17 1.18 1.15 1.20 1.27 1.29 1.33 1.34 1.34 1.37 1.43 1.45 1.62 1.65 1.72 1.78 1.75 1.66 1.70 1.69 1.60 1.77 1.74 1.61 1.56 1.57 1.66 1.69 1.77 1.71 1.80 1.98 2.05
0.62 0.60 0.66 0.73 0.73 0.72 0.72 0.75 0.76 0.87 1.05 1.16 1.25 1.32 1.31 1.24 1.29 1.30 1.28 1.31 1.42 1.52 1.61 1.66 1.77 1.81 1.67 1.70 1.72 1.72 1.69 1.74 1.70 1.64 1.57 1.45 1.45 1.44 1.48 1.51 1.57 1.71 1.84
0.55 0.63 0.70 0.74 0.74 0.73 0.69 0.69 0.70 0.81 1.09 1.18 1.21 1.36 1.44 1.35 1.40 1.43 1.43 1.44 1.47 1.59 1.66 1.79 1.85 1.81 1.85 1.75 1.60 1.62 1.60 1.65 1.69 1.71 1.69 1.42 1.25 1.35 1.34 1.46 1.44 1.41 1.47
0.53 0.62 0.64 0.65 0.68 0.70 0.72 0.71 0.73 0.80 1.04 1.21 1.29 1.52 1.67 1.57 1.58 1.59 1.62 1.67 1.73 1.76 1.87 1.89 1.78 1.72 1.76 1.69 1.43 1.35 1.27 1.39 1.50 1.58 1.64 1.62 1.52 1.48 1.49 1.55 1.55 1.48 1.45
0.62 0.64 0.68 0.71 0.77 0.85 0.87 0.87 0.96 1.06 1.20 1.33 1.47 1.70 1.90 1.95 1.92 1.85 1.94 2.01 2.00 1.98 2.03 2.06 2.00 1.87 1.84 1.67 1.36 1.23 1.17 1.31 1.39 1.45 1.45 1.44 1.35 1.36 1.29 1.32 1.39 1.41 1.37
0.67 0.79 0.90 0.90 0.94 1.01 1.00 1.04 1.15 1.35 1.49 1.53 1.56 1.71 1.90 1.97 1.95 1.95 2.14 2.27 2.23 2.16 2.19 2.07 1.94 1.85 1.83 1.77 1.46 1.28 1.20 1.33 1.41 1.50 1.48 1.45 1.38 1.35 1.21 1.16 1.24 1.23 1.23
0.71 0.77 0.80 0.93 1.05 1.14 1.20 1.32 1.36 1.44 1.49 1.53 1.57 1.69 1.90 2.18 2.13 2.15 2.24 2.32 2.33 2.34 2.35 2.25 2.14 1.99 1.95 1.92 1.60 1.41 1.31 1.40 1.45 1.39 1.39 1.38 1.36 1.17 1.08 1.05 1.09 1.13 1.12
0.76 0.76 0.76 0.87 1.05 1.25 1.43 1.49 1.47 1.50 1.60 1.61 1.60 1.69 1.94 2.05 2.10 2.23 2.27 2.36 2.45 2.43 2.39 2.38 2.24 2.19 2.12 1.87 1.61 1.42 1.38 1.44 1.51 1.49 1.45 1.42 1.29 1.05 0.95 0.85 0.82 0.86 0.84
0.85 0.86 0.87 0.94 1.06 1.23 1.44 1.60 1.62 1.62 1.58 1.55 1.52 1.61 1.76 1.86 2.00 2.09 2.02 2.07 2.18 2.17 2.20 2.22 2.17 2.21 2.30 2.16 1.73 1.42 1.32 1.36 1.45 1.58 1.64 1.45 1.27 1.12 0.98 0.91 0.83 0.76 0.72
1.01 1.01 1.05 1.08 1.13 1.21 1.38 1.54 1.54 1.57 1.56 1.48 1.43 1.54 1.75 1.86 1.93 1.99 1.97 2.02 2.08 2.13 2.19 2.21 2.14 2.14 2.27 2.26 1.94 1.60 1.40 1.30 1.27 1.29 1.30 1.22 1.15 1.04 0.92 0.84 0.76 0.68 0.71
1.02 1.02 1.06 1.11 1.11 1.16 1.36 1.50 1.51 1.56 1.62 1.58 1.53 1.61 1.73 1.82 1.96 2.02 2.05 2.05 2.05 2.02 2.02 2.01 1.95 1.94 2.04 2.05 1.83 1.60 1.45 1.32 1.27 1.25 1.27 1.24 1.23 1.13 1.04 0.97 0.92 0.91 0.93
1.03 1.06 1.13 1.15 1.12 1.16 1.28 1.40 1.56 1.71 1.75 1.69 1.65 1.61 1.59 1.67 1.74 1.79 1.74 1.68 1.63 1.61 1.55 1.53 1.44 1.42 1.58 1.57 1.32 1.18 1.20 1.19 1.14 1.12 1.17 1.24 1.28 1.23 1.16 1.11 1.06 1.07 1.06

GEFSMW_prec_meanprecacc_246.txt.gz
Total_Precipitation_Accumulation
1.97 2.14 2.45 2.93 3.74 4.47 5.16 5.29 5.59 5.08 4.45 3.94 3.57 3.46 3.27 2.95 2.83 2.71 2.61 2.46 2.21 2.10 2.35 2.21 2.26 2.10 2.18 2.21 2.32 2.57 2.69 2.34 2.43 2.86 2.46 1.86 1.49 1.48 1.37 1.36 1.45 1.50 1.53
2.04 2.38 2.91 3.30 3.33 3.87 4.57 4.62 4.35 4.14 3.71 3.34 3.19 3.02 2.97 2.64 2.45 2.31 2.36 2.15 2.01 2.03 2.07 2.23 2.09 2.04 2.17 2.17 2.23 2.43 2.43 2.14 2.33 2.80 2.92 2.38 1.99 1.68 1.30 1.29 1.35 1.48 1.70
1.89 2.31 2.73 3.17 3.14 3.52 3.61 3.24 3.09 3.19 3.15 2.99 2.90 2.76 2.76 2.57 2.30 2.13 2.13 1.96 1.76 1.79 1.83 1.86 1.93 2.04 1.84 1.99 2.17 2.30 2.39 2.27 2.20 2.47 2.90 2.69 2.34 1.99 1.60 1.47 1.55 1.70 1.87
1.35 1.63 1.97 2.39 2.59 2.68 2.60 2.57 2.55 2.61 2.81 2.82 2.62 2.44 2.17 2.08 2.02 1.90 1.94 1.92 1.66 1.60 1.63 1.65 1.82 1.90 1.84 2.08 1.81 1.93 2.20 2.41 2.22 2.25 2.30 2.35 2.57 2.54 2.12 1.75 1.63 1.74 1.88
1.04 1.18 1.27 1.49 1.77 2.02 2.09 2.08 2.36 2.47 2.50 2.50 2.47 2.51 2.25 2.06 2.01 2.11 2.31 2.22 1.88 1.56 1.42 1.53 1.69 1.79 1.85 1.94 1.88 1.99 1.96 2.04 2.10 2.18 2.18 2.30 2.51 2.39 2.30 2.10 1.88 1.79 1.64
0.82 0.99 1.03 1.07 1.20 1.35 1.48 1.60 1.88 2.11 2.19 2.15 2.17 2.25 2.28 2.25 2.06 2.00 2.06 1.99 1.82 1.62 1.45 1.49 1.69 1.77 1.81 1.83 1.89 1.90 1.82 1.91 2.02 2.07 2.10 2.28 2.31 2.25 2.34 2.21 2.02 1.91 1.63
0.64 0.82 0.81 0.85 0.95 0.99 1.09 1.28 1.49 1.67 1.79 1.87 1.95 2.03 2.23 2.20 1.97 1.76 1.80 1.78 1.61 1.53 1.52 1.49 1.75 1.84 1.82 1.79 1.88 1.86 1.85 1.97 2.05 2.07 2.11 2.18 2.15 2.17 2.35 2.39 2.14 1.97 1.77
0.57 0.62 0.57 0.59 0.74 0.80 0.88 1.04 1.18 1.28 1.39 1.61 1.85 1.85 2.00 1.87 1.74 1.86 1.76 1.64 1.43 1.46 1.67 1.77 1.79 1.77 1.79 1.81 2.05 1.90 1.92 2.00 2.03 1.95 2.28 2.25 2.11 2.31 2.52 2.69 2.74 2.42 2.18
0.53 0.51 0.45 0.46 0.50 0.55 0.63 0.81 1.08 1.18 1.22 1.31 1.53 1.65 1.65 1.68 1.76 1.94 1.89 1.72 1.62 1.49 1.67 1.82 1.91 1.83 1.79 1.89 2.11 2.07 2.11 2.22 2.12 2.11 2.35 2.31 2.20 2.26 2.33 2.62 2.92 2.96 2.69
0.60 0.63 0.47 0.43 0.46 0.46 0.56 0.66 0.84 1.08 1.24 1.22 1.23 1.28 1.53 1.60 1.72 1.81 1.75 1.73 1.66 1.64 1.70 1.67 1.71 1.71 1.69 1.81 2.12 2.13 2.17 2.34 2.28 2.24 2.28 2.30 2.20 2.28 2.28 2.42 2.78 3.07 3.09
0.54 0.60 0.43 0.38 0.41 0.44 0.51 0.64 0.78 1.06 1.25 1.17 1.20 1.31 1.47 1.56 1.62 1.78 1.77 1.71 1.69 1.72 1.68 1.63 1.66 1.65 1.56 1.63 1.81 1.92 2.10 2.23 2.30 2.27 2.31 2.30 2.42 2.47 2.37 2.46 2.60 2.83 3.02
0.56 0.59 0.51 0.56 0.57 0.58 0.62 0.75 0.86 1.03 1.14 1.16 1.24 1.30 1.40 1.48 1.53 1.59 1.67 1.74 1.72 1.78 1.75 1.71 1.68 1.56 1.55 1.63 1.73 1.86 2.03 2.17 2.28 2.39 2.47 2.27 2.35 2.49 2.43 2.43 2.47 2.59 2.87
0.66 0.62 0.65 0.78 0.74 0.73 0.83 0.92 1.02 1.05 1.15 1.28 1.28 1.24 1.31 1.29 1.35 1.44 1.51 1.64 1.69 1.73 1.78 1.80 1.73 1.68 1.71 1.78 1.83 1.88 2.02 2.14 2.21 2.31 2.31 2.26 2.40 2.31 2.36 2.44 2.42 2.42 2.48
0.68 0.58 0.66 0.74 0.76 0.77 0.85 0.96 1.01 1.03 1.13 1.18 1.21 1.24 1.24 1.28 1.38 1.46 1.51 1.56 1.52 1.59 1.63 1.63 1.71 1.75 1.79 1.82 1.82 1.81 1.84 1.91 1.98 1.98 1.88 1.82 1.89 1.97 2.16 2.16 2.18 2.26 2.32
0.67 0.56 0.61 0.71 0.79 0.83 0.82 0.87 0.96 1.03 1.17 1.18 1.15 1.21 1.29 1.31 1.36 1.38 1.40 1.42 1.47 1.50 1.66 1.68 1.77 1.83 1.79 1.70 1.74 1.72 1.65 1.82 1.77 1.64 1.59 1.60 1.69 1.73 1.82 1.75 1.85 2.03 2.11
0.67 0.66 0.72 0.83 0.78 0.74 0.74 0.76 0.78 0.88 1.06 1.17 1.26 1.34 1.34 1.27 1.34 1.39 1.39 1.38 1.48 1.57 1.66 1.71 1.83 1.86 1.70 1.74 1.75 1.75 1.73 1.79 1.74 1.69 1.61 1.48 1.48 1.47 1.51 1.52 1.58 1.73 1.87
0.58 0.66 0.74 0.78 0.77 0.74 0.70 0.70 0.70 0.82 1.09 1.19 1.22 1.40 1.50 1.42 1.50 1.55 1.54 1.50 1.52 1.65 1.73 1.86 1.91 1.86 1.90 1.79 1.62 1.64 1.63 1.69 1.72 1.75 1.73 1.45 1.28 1.40 1.36 1.49 1.46 1.43 1.48
0.55 0.64 0.67 0.68 0.70 0.72 0.72 0.71 0.74 0.80 1.04 1.22 1.32 1.58 1.74 1.65 1.66 1.67 1.70 1.73 1.78 1.81 1.92 1.95 1.85 1.79 1.81 1.74 1.45 1.36 1.28 1.40 1.51 1.60 1.66 1.65 1.56 1.53 1.53 1.59 1.59 1.51 1.48
0.63 0.65 0.69 0.72 0.79 0.86 0.88 0.88 0.97 1.07 1.22 1.36 1.50 1.74 1.97 2.11 2.06 1.92 1.99 2.06 2.04 2.03 2.09 2.11 2.05 1.93 1.90 1.73 1.39 1.25 1.18 1.32 1.40 1.46 1.47 1.47 1.39 1.43 1.34 1.36 1.44 1.45 1.39
0.68 0.80 0.91 0.92 0.96 1.03 1.02 1.05 1.17 1.37 1.51 1.55 1.59 1.74 1.97 2.09 2.05 2.03 2.20 2.32 2.27 2.21 2.23 2.12 1.99 1.89 1.88 1.82 1.50 1.31 1.22 1.35 1.42 1.52 1.50 1.48 1.41 1.39 1.25 1.20 1.27 1.26 1.27
0.72 0.79 0.82 0.95 1.07 1.17 1.23 1.33 1.38 1.46 1.52 1.56 1.60 1.74 1.98 2.25 2.20 2.21 2.29 2.38 2.38 2.38 2.39 2.29 2.18 2.03 1.97 1.95 1.63 1.44 1.33 1.41 1.46 1.41 1.41 1.40 1.39 1.19 1.10 1.08 1.11 1.16 1.15
0.77 0.78 0.77 0.89 1.06 1.26 1.45 1.51 1.48 1.52 1.62 1.63 1.63 1.72 1.98 2.09 2.14 2.28 2.33 2.43 2.52 2.49 2.44 2.43 2.28 2.23 2.15 1.89 1.63 1.45 1.40 1.46 1.53 1.51 1.47 1.43 1.30 1.07 0.97 0.86 0.83 0.87 0.85
0.86 0.87 0.89 0.96 1.08 1.25 1.46 1.62 1.64 1.63 1.60 1.56 1.53 1.62 1.78 1.88 2.03 2.12 2.07 2.12 2.25 2.24 2.26 2.27 2.21 2.25 2.35 2.19 1.75 1.44 1.34 1.39 1.47 1.60 1.65 1.45 1.28 1.12 0.98 0.92 0.85 0.78 0.73
1.02 1.01 1.06 1.09 1.15 1.23 1.40 1.56 1.57 1.58 1.57 1.50 1.45 1.55 1.76 1.88 1.95 2.02 2.00 2.05 2.10 2.16 2.23 2.25 2.18 2.19 2.32 2.30 1.97 1.64 1.44 1.33 1.29 1.31 1.31 1.22 1.15 1.04 0.93 0.85 0.77 0.69 0.73
1.03 1.03 1.07 1.12 1.13 1.18 1.39 1.52 1.54 1.60 1.65 1.60 1.55 1.63 1.74 1.83 1.98 2.04 2.07 2.07 2.07 2.05 2.05 2.04 1.98 1.98 2.09 2.11 1.90 1.65 1.49 1.36 1.30 1.27 1.28 1.25 1.25 1.14 1.05 0.98 0.93 0.93 0.95
1.06 1.08 1.14 1.15 1.13 1.17 1.31 1.43 1.60 1.75 1.79 1.72 1.68 1.64 1.61 1.69 1.76 1.81 1.77 1.72 1.67 1.65 1.58 1.56 1.47 1.45 1.61 1.61 1.36 1.22 1.24 1.23 1.17 1.14 1.18 1.25 1.29 1.24 1.17 1.13 1.08 1.09 1.08